GEFSMA_500_meanwind_138.txt.gz
Wind_Speed
32 32 33 33 33 34 34 34 35 35 35 35 35 35 36 36 36 35 35 35 35 35 35 35 36 36 36 35 35 35 35 34 34 34 34 33 33 32 32 31 30 29 29
33 33 33 34 34 35 35 35 35 35 36 36 37 37 37 38 38 37 37 37 37 37 37 37 37 37 37 37 37 37 37 37 36 35 35 35 35 34 33 32 31 31 30
35 35 35 36 36 37 37 38 38 39 39 40 40 40 40 39 40 40 40 39 39 39 39 40 39 39 38 38 38 38 38 38 37 37 37 36 36 35 34 34 33 32 32
36 36 37 37 38 38 39 40 41 42 42 43 43 43 43 43 43 43 43 43 42 42 42 42 42 42 42 41 41 41 40 40 39 39 38 37 38 37 36 35 35 34 34
38 38 38 38 39 40 40 42 42 43 44 44 44 44 44 45 45 44 45 45 45 45 45 44 44 44 44 44 44 44 43 43 42 41 40 39 39 38 38 37 37 36 36
39 39 40 41 41 42 42 43 43 44 44 44 45 45 46 46 47 47 47 48 48 48 48 48 48 48 47 47 47 46 45 45 44 43 42 41 41 40 40 39 38 37 37
40 41 41 42 43 43 44 44 45 45 45 45 45 46 46 46 47 48 49 49 50 51 51 51 51 51 51 50 49 49 48 47 46 45 44 44 43 42 41 40 40 39 38
41 41 42 43 44 44 44 44 44 45 45 45 45 46 46 46 46 47 48 50 51 52 53 53 53 53 52 51 51 51 50 49 49 48 47 46 45 45 44 43 41 40 40
41 42 43 43 43 44 45 45 45 45 44 45 45 45 45 45 46 46 48 49 51 53 53 54 54 53 53 52 52 53 51 50 50 50 50 49 48 47 46 46 44 42 42
42 43 42 42 43 43 43 44 44 43 43 44 44 45 45 46 46 46 47 49 50 51 52 53 53 53 53 53 54 54 54 53 52 51 51 51 51 50 49 47 46 45 45
42 42 42 42 42 42 42 42 42 43 43 43 44 45 45 46 47 47 47 48 49 50 52 52 54 55 54 53 53 53 54 55 55 54 53 53 52 50 49 48 47 47 46
40 40 40 41 41 41 41 41 42 42 43 44 44 45 45 46 47 47 47 47 48 48 50 51 52 53 55 56 55 55 54 55 55 54 54 53 53 53 52 52 50 48 48
39 39 40 39 39 39 40 40 41 42 42 43 44 45 46 46 47 47 48 48 48 48 49 50 51 52 53 55 56 55 55 55 55 54 54 54 54 55 54 52 51 50 50
39 39 39 39 39 39 39 40 40 41 41 42 43 44 45 46 47 47 48 49 50 50 51 51 51 52 52 54 56 57 56 57 56 56 55 55 54 54 54 53 52 52 52
38 38 38 38 38 38 39 39 39 40 40 41 42 43 44 45 46 47 48 49 50 50 49 50 52 53 53 53 54 56 56 57 57 57 57 56 56 57 56 56 55 55 54
36 36 37 37 37 38 39 39 39 40 40 41 41 42 43 44 45 46 48 48 49 49 49 49 50 51 52 52 52 54 54 55 56 57 58 58 57 58 57 57 57 56 56
34 35 35 36 36 37 37 38 38 39 40 40 41 41 42 42 43 44 45 46 47 48 48 47 48 48 50 51 51 52 52 53 55 57 57 58 60 60 60 60 59 59 58
32 33 34 35 36 36 37 37 38 39 39 40 40 41 41 42 42 43 43 44 46 46 47 47 48 49 50 51 52 53 54 54 55 56 57 58 60 62 62 61 61 62 61
32 33 34 35 36 36 37 37 38 38 39 39 40 40 41 41 42 42 42 43 44 45 46 47 48 49 50 51 52 53 54 56 57 57 58 59 60 62 63 63 62 62 63
32 33 34 35 36 36 36 37 37 37 38 39 40 40 41 41 41 42 42 43 43 44 45 46 47 48 49 51 52 53 54 55 56 57 58 59 59 61 63 63 63 62 63
33 33 34 35 35 36 36 37 37 37 38 39 40 40 41 41 41 42 42 42 42 43 44 46 47 48 50 51 52 53 54 55 55 56 57 58 59 60 61 62 63 64 64
33 34 35 35 36 36 37 37 38 38 39 40 41 41 41 42 42 42 42 42 43 44 45 46 47 48 48 49 50 52 53 53 53 54 55 57 59 59 60 62 63 64 64
32 33 34 35 36 36 36 37 38 39 40 41 42 42 42 42 42 42 42 43 44 45 46 47 47 47 48 48 49 50 51 53 54 55 56 56 58 59 60 61 62 63 63
34 34 35 35 36 36 36 37 38 39 41 41 42 42 42 42 43 43 44 45 46 47 48 48 49 49 49 50 50 51 51 52 53 55 56 56 56 57 58 60 61 62 63
35 35 36 36 36 37 37 38 39 40 41 41 41 42 42 43 43 44 45 46 47 47 48 48 49 49 49 50 50 51 52 53 53 54 55 56 56 57 57 58 59 60 62
35 36 36 36 37 38 38 39 40 41 42 42 43 43 44 44 44 45 46 47 47 47 47 46 47 47 48 48 49 50 51 51 52 53 54 55 55 56 56 57 58 59 59

GEFSMA_500_meanwind_144.txt.gz
Wind_Speed
30 30 31 31 32 32 32 32 33 33 32 32 32 32 32 32 32 33 33 33 34 34 35 35 35 35 35 35 35 35 35 35 35 35 34 34 34 34 34 33 33 32 32
31 31 32 32 32 33 34 34 34 34 34 34 34 34 34 35 35 35 35 36 36 37 37 37 37 37 37 37 37 37 37 38 38 38 37 37 36 36 36 35 35 35 34
32 32 33 34 34 34 35 35 35 35 35 35 35 35 35 36 37 37 37 38 38 38 39 40 40 40 40 40 39 39 39 40 40 40 40 39 38 38 37 37 37 36 36
32 32 33 33 34 34 35 35 36 36 36 36 37 37 37 38 38 38 39 39 39 39 40 41 42 43 43 42 42 41 42 41 42 42 42 41 40 40 39 38 38 37 37
32 32 33 34 34 34 35 36 36 37 37 38 38 38 38 39 39 40 40 40 40 41 41 42 42 43 43 43 43 43 42 42 42 43 43 43 43 43 42 40 40 39 39
34 34 35 35 35 35 36 36 37 38 38 38 39 39 39 40 40 41 41 42 42 42 42 43 43 43 44 45 45 45 45 44 44 45 45 44 45 45 44 43 42 41 41
35 36 36 36 36 36 36 37 37 38 39 40 40 40 40 41 41 42 42 42 42 43 43 44 44 45 46 46 47 48 48 48 47 47 46 46 46 45 46 45 45 43 42
36 36 36 36 36 36 37 38 38 38 39 39 40 41 40 40 41 41 41 42 42 43 43 43 44 45 46 46 47 48 48 49 49 48 48 48 48 47 47 47 47 46 45
36 37 37 36 36 37 37 37 37 37 38 39 40 40 40 39 40 40 40 41 41 41 42 43 44 44 45 46 46 47 48 48 48 49 49 48 49 50 49 49 49 48 47
36 36 36 36 37 37 38 38 38 38 39 39 40 40 40 40 40 39 39 40 41 42 43 44 45 45 46 46 47 48 49 49 49 49 50 50 50 51 51 51 50 49 49
37 37 37 37 37 37 38 38 39 39 40 40 40 40 40 41 41 41 41 42 42 43 43 44 45 46 47 48 49 50 51 51 51 51 52 51 51 52 52 51 49 49 50
37 37 37 37 37 37 38 39 40 40 40 40 40 40 40 41 41 42 42 42 42 43 43 44 44 45 47 48 49 50 51 51 52 51 52 53 53 53 53 53 51 51 51
35 36 36 37 37 38 38 39 39 39 39 40 40 40 40 40 41 41 42 42 42 43 44 45 46 47 47 48 48 49 50 50 51 50 51 52 53 54 54 55 55 54 53
35 36 36 37 37 38 39 39 39 39 39 39 39 39 40 40 41 42 42 42 42 42 44 44 46 47 48 48 48 48 49 49 49 49 50 50 50 51 53 54 55 55 55
35 36 36 37 37 37 38 38 39 40 40 40 40 40 40 41 41 42 42 42 42 42 43 44 45 46 46 47 47 48 48 49 50 50 50 50 49 50 52 53 53 54 54
36 37 37 38 38 38 39 39 40 40 40 40 41 41 41 41 42 42 42 43 43 43 43 44 45 46 47 46 46 46 47 48 48 49 49 50 51 51 52 53 53 52 53
37 37 38 38 39 39 39 39 39 40 40 40 40 40 40 41 41 42 42 43 44 44 44 44 45 46 46 46 45 46 47 48 49 50 51 52 52 52 53 53 52 53 53
38 38 38 39 39 39 39 39 39 39 40 40 40 40 41 41 42 42 43 44 44 45 45 45 46 46 45 45 45 46 46 47 48 49 50 51 52 52 53 53 53 54 54
39 39 39 39 39 39 39 39 39 40 40 41 41 42 42 42 43 43 44 45 46 47 47 47 46 45 45 45 45 45 46 47 48 49 50 51 51 52 53 53 54 55 56
38 38 39 38 39 39 39 40 40 41 41 41 42 42 43 43 44 45 46 47 47 48 49 48 47 46 46 46 46 46 47 48 48 50 51 51 52 53 54 55 56 56 57
38 38 38 38 39 39 40 41 41 42 42 43 43 43 44 45 45 46 47 48 49 49 49 48 47 47 47 48 48 49 49 49 49 50 51 52 52 53 55 55 56 56 58
38 38 38 39 39 40 41 42 42 43 43 44 44 45 45 46 47 47 48 48 48 48 47 47 47 48 48 49 50 50 50 50 49 50 51 52 53 54 56 56 57 58 59
38 38 39 40 40 41 42 43 44 44 44 44 44 45 46 47 47 47 48 49 49 48 48 48 48 48 48 49 49 49 49 49 49 49 50 50 52 53 54 55 56 58 59
38 39 40 40 41 41 42 43 44 44 44 45 45 45 46 47 47 48 49 49 48 48 48 49 49 49 49 49 49 49 49 49 49 50 51 51 51 52 53 54 55 56 58
39 40 40 41 41 42 42 43 43 44 44 45 45 45 46 47 47 48 48 48 48 48 48 49 48 48 49 49 49 49 49 49 49 50 51 52 52 52 53 53 54 55 55
39 40 41 41 42 42 42 43 43 44 44 44 44 45 45 46 46 46 46 46 46 46 47 47 47 47 48 48 49 49 49 50 50 50 51 52 52 52 51 51 52 53 54

GEFSMA_500_meanwind_150.txt.gz
Wind_Speed
27 27 27 27 27 28 29 29 29 30 30 31 31 31 31 31 31 31 31 31 31 31 32 32 33 33 34 34 35 36 36 36 36 36 36 36 37 36 36 36 36 36 36
28 28 29 29 29 30 30 30 30 31 32 32 32 32 32 32 32 32 33 33 33 34 34 35 35 36 36 37 37 37 37 37 38 38 38 38 38 39 39 39 39 39 38
29 29 29 30 31 31 31 32 32 32 33 33 33 33 33 33 33 34 34 35 35 35 36 36 37 38 38 38 38 38 38 38 39 39 39 40 40 40 40 40 40 40 40
30 30 30 31 32 32 32 32 33 33 33 33 33 33 33 34 34 35 35 35 36 36 37 37 38 38 39 39 40 40 40 40 41 41 41 41 41 41 42 42 41 41 41
30 30 31 32 32 33 33 33 33 33 32 33 33 34 34 34 35 36 36 37 37 38 38 38 38 39 40 40 40 40 41 42 43 43 43 43 42 42 43 43 43 43 42
31 31 32 32 32 32 33 33 33 33 33 33 33 34 34 35 36 36 37 37 38 39 39 39 40 40 41 41 41 41 43 43 44 45 45 45 44 44 44 45 45 44 44
33 33 33 34 33 33 33 33 33 33 34 34 34 35 35 36 36 36 37 37 38 38 39 40 40 40 41 41 41 42 43 44 44 45 45 46 46 46 46 47 46 45 45
35 35 34 34 34 34 34 34 34 35 34 34 35 35 36 36 37 37 37 38 38 38 39 39 39 39 40 40 41 42 43 44 44 45 45 46 47 48 48 48 47 46 46
36 36 35 35 35 35 35 35 35 36 36 36 36 36 37 37 38 38 38 38 39 39 39 40 40 40 41 41 42 42 43 44 44 44 45 46 46 48 49 49 49 48 48
36 36 36 36 36 36 36 36 36 36 37 37 38 38 38 38 38 38 39 39 40 40 41 41 41 41 42 43 43 43 44 45 46 46 46 46 47 48 48 49 49 49 48
36 35 36 36 37 37 37 37 38 38 38 39 39 39 38 38 38 38 38 39 40 40 41 42 42 43 43 44 44 45 46 46 47 48 48 47 47 48 49 50 50 49 48
38 37 35 35 36 37 38 38 38 39 39 38 38 38 38 38 39 39 40 40 40 41 42 43 43 44 44 44 45 45 46 47 47 47 48 48 49 49 50 51 51 50 51
37 38 38 37 37 37 38 38 38 38 39 39 39 40 40 40 41 41 41 41 41 42 42 42 42 42 43 43 44 44 45 46 47 48 48 49 49 50 50 51 51 51 51
38 38 39 40 39 39 38 38 39 39 40 40 41 41 41 42 42 42 42 42 42 42 42 43 42 42 42 43 43 44 44 45 47 48 48 49 49 49 50 50 51 51 51
39 39 39 40 40 41 40 39 39 40 41 42 42 42 42 42 42 42 42 42 42 42 42 43 44 44 44 44 45 45 45 46 47 47 47 47 47 48 48 49 50 51 53
39 40 40 40 41 42 42 42 42 41 42 42 42 42 43 43 43 43 43 43 43 43 43 44 45 45 46 45 45 46 46 46 47 47 47 47 47 48 48 49 51 52 53
40 40 41 41 42 43 43 44 44 44 43 43 43 44 44 44 44 44 44 45 45 45 45 45 46 47 47 47 47 48 48 47 48 48 48 48 48 48 49 49 50 51 52
42 42 43 43 43 44 44 44 44 44 44 44 44 45 45 46 46 45 46 46 46 46 47 47 47 48 48 48 49 49 50 49 49 49 49 49 48 48 49 49 50 50 51
44 44 44 44 44 44 44 44 45 45 45 45 46 46 46 46 46 46 46 46 47 47 47 48 48 49 48 49 50 51 52 52 52 51 50 50 49 50 50 50 51 51 52
43 43 43 44 44 45 45 46 46 46 46 46 47 47 47 47 47 47 47 47 48 48 49 49 49 49 49 50 51 51 51 52 52 52 51 50 50 51 51 51 51 52 52
43 43 44 44 44 45 46 47 47 47 46 47 47 47 48 48 48 48 49 49 49 49 50 50 50 50 50 51 51 50 50 51 51 51 50 51 51 50 50 50 50 51 53
44 44 45 46 46 46 46 46 47 46 47 47 47 47 48 48 48 49 49 49 50 50 50 50 50 50 51 51 51 51 50 50 49 49 50 50 51 51 51 51 52 53 54
44 45 45 46 46 46 46 46 46 46 47 47 48 48 48 48 48 49 49 50 50 49 49 49 50 50 50 51 51 51 51 50 49 50 50 49 50 51 51 52 53 53 53
43 44 44 45 45 45 45 45 46 46 47 47 48 48 48 48 49 49 49 49 49 49 49 49 50 50 50 50 50 50 50 50 50 50 50 49 50 51 51 53 54 55 55
43 43 44 44 44 44 45 45 46 46 47 47 47 48 48 48 48 49 49 49 49 49 49 49 49 49 49 49 50 50 49 50 50 50 50 50 50 50 50 52 53 54 54
43 44 44 44 45 45 45 45 46 46 47 47 47 48 48 48 48 49 49 48 48 48 48 48 48 48 48 48 48 49 49 49 49 49 50 50 50 49 49 49 51 52 53

GEFSMA_500_meanwind_156.txt.gz
Wind_Speed
26 26 26 26 26 26 26 26 26 26 26 25 26 26 27 27 28 28 30 30 31 32 32 32 32 33 33 33 34 34 34 34 34 35 35 35 35 35 35 35 35 35 35
27 27 27 28 28 28 27 27 27 27 27 27 27 27 27 27 28 29 30 31 32 32 33 33 34 34 35 35 35 35 36 36 36 36 36 36 36 36 36 36 36 36 36
27 28 28 29 29 29 29 29 28 29 29 29 29 29 29 29 29 30 30 31 32 32 33 34 34 35 35 35 35 35 36 36 37 37 38 38 38 38 38 38 38 38 38
28 29 30 30 30 30 30 30 30 30 30 30 30 30 31 31 31 31 31 31 31 32 32 33 34 35 35 36 36 36 37 37 38 38 38 38 39 39 39 40 40 39 40
30 31 31 31 32 32 32 32 32 32 32 32 32 32 33 33 33 33 32 32 32 33 33 33 33 34 35 36 36 37 37 38 39 39 40 39 39 40 40 40 40 40 41
32 32 32 33 33 33 33 33 34 34 34 34 34 34 35 35 34 34 34 33 33 33 34 34 34 35 35 36 36 37 38 39 40 40 41 40 39 40 40 41 41 42 42
32 33 34 34 34 34 35 35 35 35 35 35 35 35 35 35 35 35 35 35 35 35 35 36 36 36 36 37 37 38 39 40 40 41 42 42 42 42 42 41 42 44 44
33 34 35 37 37 36 36 36 36 36 36 36 36 35 35 36 36 37 37 37 37 37 37 37 37 37 38 38 39 40 40 40 41 42 42 43 43 43 43 43 44 44 45
36 36 36 36 37 37 37 37 37 37 37 37 37 37 36 36 37 37 38 38 39 39 39 39 39 39 39 40 41 41 42 42 43 43 44 44 44 44 45 45 45 45 46
39 38 38 38 38 38 38 38 38 38 37 37 38 38 38 38 38 38 39 40 40 40 41 41 41 41 42 42 43 43 44 44 44 44 44 44 45 45 45 45 45 46 47
41 40 40 39 39 38 38 38 38 38 38 38 39 39 39 40 40 40 40 40 41 41 42 43 43 44 44 43 44 44 44 44 43 44 44 44 45 45 46 46 46 46 47
40 41 41 41 40 39 39 38 38 39 39 39 40 40 40 41 41 41 41 41 41 42 43 43 44 44 44 44 44 44 44 44 44 45 45 46 46 46 47 48 48 47 47
40 41 42 42 41 40 39 39 39 40 40 41 41 42 42 42 42 42 43 43 43 43 44 44 44 45 45 44 44 44 44 44 45 45 45 46 46 47 48 49 49 49 50
41 41 41 42 42 42 42 41 42 42 43 43 44 44 44 45 45 45 45 45 44 44 44 45 46 46 45 45 45 45 45 45 46 46 46 46 47 48 49 50 49 48 49
42 43 43 43 43 44 45 44 44 45 45 45 46 47 47 47 47 47 48 48 48 47 46 46 47 46 46 46 45 45 46 47 47 48 48 49 50 50 50 50 50 49 49
43 43 44 44 45 46 46 47 46 46 46 47 48 49 49 49 49 50 50 50 50 50 50 50 49 48 48 48 48 48 48 48 49 49 49 50 51 51 51 50 50 50 50
44 45 45 45 46 46 47 47 48 48 48 49 48 49 50 51 51 51 52 52 52 52 52 51 51 50 50 50 50 50 50 50 51 51 51 50 51 51 51 51 51 51 52
45 45 46 46 47 47 47 48 49 49 50 51 50 49 50 50 51 52 53 53 53 53 53 52 52 51 51 51 50 51 51 52 52 52 51 51 51 51 51 52 52 52 52
44 45 45 46 47 47 47 47 48 49 50 50 51 51 51 51 52 52 52 53 52 52 52 52 51 51 51 51 51 52 52 52 52 52 52 52 51 51 51 51 51 52 53
44 45 45 46 46 47 48 48 48 49 49 50 51 51 51 52 52 52 52 52 51 51 52 52 51 51 51 51 52 52 52 53 53 53 53 53 53 53 52 52 52 52 53
44 45 46 46 47 47 48 49 49 50 50 50 51 51 51 51 51 51 51 51 51 51 51 51 51 51 51 52 52 52 52 52 52 52 53 53 53 53 53 54 54 54 53
44 45 46 47 47 48 49 49 50 50 51 51 51 51 51 51 51 51 51 51 51 51 51 51 51 51 51 52 52 52 52 52 52 53 53 53 54 54 54 54 54 54 53
44 45 46 46 47 48 49 50 50 50 50 51 52 52 51 51 51 51 51 51 51 51 51 51 51 52 52 52 52 52 51 51 52 52 52 52 53 53 53 53 53 53 53
45 45 46 47 47 48 49 49 49 49 49 50 50 51 51 51 51 51 51 50 51 51 51 51 51 51 51 51 51 51 51 51 52 52 52 51 51 51 51 52 52 52 52
45 46 46 46 47 47 48 49 49 49 49 49 49 50 50 50 50 50 49 49 50 50 50 50 50 50 50 50 50 50 50 50 50 50 50 49 49 49 49 50 50 50 50
46 46 46 47 47 48 48 48 48 48 48 48 49 49 49 49 48 48 48 48 48 48 48 49 49 50 49 49 49 50 50 49 49 48 48 48 48 48 47 48 48 48 48

GEFSMA_500_meanwind_162.txt.gz
Wind_Speed
26 26 25 25 25 25 25 25 25 24 24 25 25 25 25 25 25 26 26 26 27 27 27 28 28 29 30 30 31 31 32 32 32 32 32 33 33 33 33 33 33 34 33
27 27 27 26 26 26 26 26 26 26 27 27 27 26 26 27 27 28 28 28 28 29 29 29 30 30 31 31 31 31 32 32 33 33 33 34 34 35 35 35 35 35 35
28 28 28 28 28 27 27 28 28 28 28 28 28 28 28 29 29 29 29 29 29 30 30 31 31 31 31 31 31 31 31 32 33 34 34 35 35 36 36 36 36 36 36
29 29 29 30 30 29 29 29 29 30 30 30 29 29 30 30 30 30 30 30 30 31 31 31 31 32 31 31 32 32 32 33 34 34 35 36 36 36 36 36 36 36 36
30 30 30 30 31 31 31 31 31 31 31 31 31 31 31 31 31 31 31 32 32 32 32 32 32 32 32 33 33 33 33 34 34 35 36 37 37 38 37 38 38 37 37
30 30 30 30 31 32 33 33 33 32 33 32 32 32 32 32 32 32 33 33 33 33 33 33 33 34 34 34 35 35 36 36 36 37 37 38 38 38 39 39 39 39 38
30 31 32 32 33 34 33 33 34 34 34 34 34 34 34 34 34 34 34 34 34 34 34 35 35 36 36 36 37 37 38 38 39 39 39 39 39 39 40 40 41 41 40
32 32 33 34 34 34 34 34 34 35 35 35 36 36 36 36 36 36 36 36 36 36 36 36 37 37 37 38 39 39 40 40 41 41 42 41 41 42 42 42 42 42 42
35 35 34 35 36 36 35 35 36 36 36 36 37 37 37 37 37 37 37 37 38 38 38 39 39 40 40 40 41 41 41 42 43 43 43 43 44 44 44 43 43 43 43
37 37 36 36 35 35 35 36 37 37 37 37 37 37 38 38 38 38 38 39 40 40 40 41 41 42 42 42 43 43 44 44 45 45 45 45 44 44 44 44 44 44 44
38 38 38 37 37 36 36 37 37 38 38 38 38 38 39 39 40 41 41 41 42 42 43 43 43 44 44 45 45 45 45 46 46 46 46 46 46 45 45 45 45 45 45
38 39 40 40 39 39 38 38 39 39 39 40 41 41 42 42 43 44 44 45 45 45 45 46 46 46 47 47 47 47 47 48 48 48 48 47 47 46 46 46 46 46 47
39 40 41 42 42 42 42 41 41 41 41 42 43 43 44 45 46 46 47 47 47 47 48 48 48 49 49 49 49 49 50 50 50 50 49 48 48 47 47 47 47 48 48
40 41 42 43 43 43 44 44 43 43 43 43 44 45 46 47 48 48 48 49 49 49 50 50 50 50 50 51 51 51 51 52 51 51 50 49 49 49 48 48 48 49 49
41 42 43 44 44 45 45 45 45 45 45 45 46 47 48 49 49 50 50 51 51 51 52 52 52 52 52 52 52 53 53 52 52 51 50 50 50 50 50 50 50 50 50
42 42 43 44 45 46 46 46 47 47 47 47 47 48 49 50 50 51 51 51 52 52 52 52 53 53 53 53 53 53 53 53 52 51 51 50 50 50 51 51 51 51 51
42 43 43 44 45 46 47 47 48 48 49 50 50 49 49 49 50 50 51 52 52 52 53 53 53 53 54 54 54 53 53 53 52 51 51 50 51 51 51 51 51 52 52
42 43 44 44 46 47 47 48 49 50 50 51 51 51 51 50 50 51 51 51 51 52 52 53 53 54 55 54 54 53 52 52 51 52 51 50 51 51 51 52 52 52 52
42 43 44 45 45 46 47 48 49 50 50 51 51 52 51 51 51 51 51 52 52 53 53 53 54 54 55 54 53 52 52 51 51 51 51 51 51 51 52 52 53 52 52
43 44 44 44 44 45 46 46 47 48 49 50 51 51 52 52 51 52 52 53 53 53 54 53 54 53 53 52 52 51 51 51 51 51 52 52 52 52 52 52 52 51 51
42 43 43 44 45 45 46 46 47 47 48 49 50 50 51 51 52 52 52 52 53 53 53 53 53 52 52 51 51 50 50 50 51 50 51 51 51 51 51 51 51 51 51
43 44 44 44 45 46 46 47 46 46 47 48 48 49 49 50 51 51 51 52 52 52 52 52 52 52 51 51 50 50 50 49 49 50 50 50 51 50 50 50 50 51 51
44 45 45 45 45 45 46 46 46 46 46 47 47 48 48 49 49 50 50 50 50 51 51 51 51 51 51 50 50 49 49 49 49 49 49 49 49 49 49 49 50 50 51
44 44 44 45 45 46 46 47 47 47 47 47 48 48 48 48 49 49 49 49 50 50 50 50 50 50 50 49 49 48 48 48 48 49 48 48 48 48 49 49 49 49 50
44 44 44 44 45 45 46 47 47 47 47 48 47 48 48 49 49 49 48 49 49 49 49 49 49 48 48 48 48 48 47 47 47 48 47 47 47 48 48 49 49 49 48
44 45 44 44 45 46 46 47 47 47 48 48 48 49 49 50 49 49 48 48 48 48 48 47 47 47 47 46 46 46 46 46 46 46 47 46 47 47 46 46 47 47 47

GEFSMA_500_meanwind_168.txt.gz
Wind_Speed
25 25 25 25 24 24 25 25 25 25 25 25 25 26 26 27 27 27 27 27 28 28 27 27 27 27 28 28 28 29 29 30 30 30 29 29 29 30 30 31 31 32 32
25 26 26 26 26 25 26 26 27 27 27 27 27 28 28 28 28 28 28 28 28 28 27 27 27 28 28 28 28 29 29 30 30 30 31 31 31 31 32 32 33 33 33
28 26 27 27 27 27 27 27 28 28 29 29 29 29 29 29 29 29 29 28 28 28 28 28 28 29 29 29 29 29 30 30 30 31 31 32 32 33 33 33 34 34 35
31 29 28 28 28 28 28 28 28 29 30 30 30 31 30 30 30 29 30 30 30 30 30 30 30 30 30 30 30 31 31 31 32 32 33 33 34 34 34 35 36 36 37
32 32 31 30 29 30 30 30 30 30 31 32 32 32 32 31 30 30 30 30 30 30 30 31 31 31 32 32 32 33 32 33 33 34 34 35 35 36 36 36 37 38 38
33 32 31 31 31 31 32 32 32 32 33 33 33 33 32 32 31 31 31 31 31 32 31 31 32 33 33 34 34 34 35 35 35 35 36 37 37 38 38 38 39 40 40
34 34 32 33 33 33 33 33 33 33 33 32 32 32 33 32 32 33 33 33 33 33 33 34 34 35 35 36 36 37 37 38 38 38 38 38 39 40 40 40 40 41 41
34 36 35 34 33 33 33 32 32 32 32 31 31 32 33 34 34 34 35 35 35 36 36 37 37 38 38 38 39 39 40 40 40 40 41 41 41 41 42 42 42 43 43
35 36 38 35 34 35 34 33 32 32 32 33 33 33 34 35 35 36 36 37 38 38 39 40 40 40 41 41 41 42 42 42 42 42 43 43 44 44 44 45 45 45 44
36 37 38 37 35 35 35 34 35 35 35 35 36 36 36 36 37 37 38 39 40 41 41 42 42 43 43 44 44 44 44 44 45 45 46 46 46 47 47 47 48 48 47
36 36 37 39 37 36 36 36 36 36 37 37 38 38 39 39 40 40 40 41 42 43 43 44 44 45 45 46 46 46 47 47 47 48 48 49 49 49 50 50 50 50 49
37 37 38 39 39 39 38 37 37 37 38 39 40 40 40 41 41 42 42 42 43 44 45 46 47 47 48 48 48 49 49 49 49 50 51 51 52 52 52 52 51 51 50
37 38 39 39 39 40 40 40 39 40 41 41 41 41 42 42 43 44 44 45 45 45 46 48 49 49 49 49 50 50 51 51 52 52 52 52 53 53 53 53 52 51 51
37 38 38 38 38 39 40 40 41 42 42 42 42 43 43 45 45 46 46 47 47 48 48 49 50 51 51 52 52 52 52 53 53 53 53 53 53 53 53 52 52 51 51
38 39 39 39 39 39 40 41 42 42 43 43 44 45 46 47 47 48 49 49 50 50 50 51 52 52 52 52 53 54 54 53 53 53 53 53 53 53 53 52 51 51 51
38 38 39 40 41 41 41 42 43 43 44 45 46 47 48 48 49 50 51 51 52 52 52 52 52 52 52 53 53 53 53 53 53 53 54 54 54 53 53 52 52 51 50
38 39 39 40 41 41 42 43 44 45 45 46 47 48 49 49 50 51 52 52 53 53 53 52 53 53 53 53 53 54 54 54 54 54 54 54 53 53 53 52 51 51 51
40 40 41 41 42 43 43 44 45 46 46 47 48 48 49 50 50 51 52 52 53 53 53 52 52 52 52 53 53 53 53 53 53 53 53 54 53 52 52 52 52 51 51
41 42 42 43 43 44 44 45 46 47 48 49 49 49 49 49 50 50 51 51 52 52 52 52 51 51 51 51 51 51 51 52 52 52 53 52 51 51 51 51 51 51 50
42 42 43 43 44 44 44 45 46 47 48 49 49 49 49 49 50 50 50 51 51 51 51 51 51 51 51 51 51 50 51 51 51 51 50 50 49 50 50 50 49 49 49
42 43 43 43 44 44 44 45 45 46 47 48 48 49 49 50 51 50 50 50 51 51 51 51 51 51 51 51 50 50 50 50 50 49 49 49 48 49 48 48 48 48 48
43 43 44 44 44 45 46 46 46 46 46 47 47 48 49 50 50 50 50 51 50 50 51 51 51 51 51 51 50 49 49 48 48 48 48 48 48 48 48 47 47 47 47
44 44 45 45 45 46 46 47 47 46 46 46 47 48 49 49 49 50 50 50 50 50 51 51 50 51 50 50 50 49 48 47 47 47 46 46 47 46 47 47 46 46 47
45 45 45 45 46 46 47 47 47 47 47 47 48 48 49 49 49 49 50 50 50 50 51 51 51 51 50 50 49 48 48 47 47 47 46 46 46 46 46 47 47 47 47
45 46 46 46 46 47 47 48 48 48 48 48 49 49 50 50 50 51 51 50 50 50 51 51 51 50 50 49 48 48 47 46 46 46 46 46 46 45 45 46 47 47 47
45 46 46 46 47 47 48 49 49 49 49 50 50 50 50 51 51 51 51 51 51 51 51 50 50 49 49 48 47 46 46 46 46 45 46 46 46 45 44 44 46 46 45

GEFSMA_500_meanwind_174.txt.gz
Wind_Speed
27 26 26 26 25 25 25 25 25 26 26 26 25 25 25 25 26 26 26 26 26 25 25 24 24 24 25 25 25 25 26 26 26 27 27 27 28 28 28 29 29 30 31
28 28 27 26 26 26 26 26 27 27 26 27 26 26 27 27 26 27 27 27 26 26 26 25 25 25 26 26 26 26 26 27 27 27 28 28 29 29 30 31 31 32 32
30 30 29 28 28 28 28 27 26 27 28 28 28 28 28 28 28 28 28 28 27 27 27 27 27 27 28 28 28 28 28 28 29 29 30 30 30 31 31 32 33 33 34
31 31 31 30 29 28 28 28 27 28 29 30 31 31 31 30 29 29 29 29 29 29 29 30 30 30 30 30 30 30 30 30 31 31 32 32 32 33 33 34 34 35 35
32 32 31 31 31 30 29 30 31 31 31 31 31 32 32 31 30 30 30 31 30 30 31 31 31 32 32 31 32 32 32 33 33 33 34 35 35 36 36 37 37 37 37
31 32 32 32 32 31 31 32 32 33 33 32 32 32 32 32 32 32 33 33 32 32 32 33 33 33 34 34 34 35 35 36 36 36 37 37 38 38 39 39 39 39 39
32 33 34 34 34 33 33 34 34 34 34 33 33 33 34 34 34 34 34 34 34 34 34 35 35 35 35 36 36 37 37 38 38 39 39 40 41 41 41 41 41 41 41
33 34 34 35 36 36 36 36 35 35 35 35 35 35 36 35 35 35 35 35 36 36 36 37 37 37 37 38 39 39 40 40 41 41 42 43 44 44 44 44 44 44 43
33 34 34 35 36 37 37 37 36 36 36 36 36 36 36 36 36 36 36 37 37 38 38 39 39 39 40 40 41 42 43 43 44 45 45 46 46 46 46 46 46 46 45
35 35 36 37 37 37 38 38 38 38 37 37 37 37 37 37 37 37 38 38 39 39 40 41 41 41 42 43 43 44 45 46 47 47 48 49 49 49 49 49 48 48 48
35 36 37 38 38 38 39 38 38 38 38 38 37 37 38 38 39 39 40 40 40 41 42 43 43 44 45 45 45 46 47 48 49 50 51 51 51 51 51 50 50 50 50
37 38 38 38 38 38 38 38 38 38 38 38 38 38 38 39 40 41 41 40 40 41 43 43 44 45 46 46 47 48 49 50 51 52 52 53 52 52 51 51 51 51 51
37 37 37 38 38 39 39 39 39 38 38 38 39 39 40 40 41 41 42 42 41 42 43 44 45 46 47 48 48 49 50 52 53 53 53 53 53 52 52 52 52 52 52
37 36 36 37 38 38 39 40 40 39 39 40 40 40 41 41 41 41 42 43 43 44 45 45 46 47 48 49 50 51 52 53 53 53 53 53 53 53 53 53 53 53 52
36 36 36 37 38 39 40 40 40 41 41 41 42 42 41 41 42 43 44 44 45 46 47 47 48 49 50 50 51 52 52 52 52 52 52 52 52 52 52 52 52 52 51
37 37 38 39 39 39 40 41 42 42 42 43 43 44 44 44 44 44 45 46 47 48 49 50 50 50 51 52 53 52 52 52 52 52 52 51 51 51 51 51 51 51 51
39 39 40 40 40 40 41 41 43 43 44 44 45 45 45 46 47 47 48 48 48 49 49 50 51 52 52 52 53 53 53 53 53 52 52 52 52 51 51 51 51 51 50
41 41 42 42 42 42 43 43 44 45 45 46 46 46 47 47 48 49 49 49 50 50 50 50 50 51 52 52 52 52 52 52 51 52 52 52 51 51 50 50 50 50 49
42 43 43 43 44 44 44 45 45 46 46 46 47 47 48 48 48 49 49 50 50 50 51 51 51 52 52 53 53 53 53 52 52 51 51 51 51 50 50 49 49 48 48
43 44 44 45 45 45 46 46 46 46 47 47 48 48 49 49 49 49 50 50 50 51 51 51 52 52 53 53 53 53 53 53 52 52 52 52 51 50 50 49 49 48 48
44 44 45 45 46 47 47 47 47 47 48 48 48 49 49 50 49 50 50 50 50 51 51 51 52 53 53 54 54 54 53 53 52 52 52 52 51 51 51 50 49 49 48
45 45 45 46 46 47 47 48 48 48 48 49 49 49 49 50 50 50 51 51 51 52 52 52 53 53 53 53 53 53 53 53 52 51 51 51 51 51 51 50 50 49 49
45 46 46 46 46 47 48 48 48 49 49 50 50 50 50 50 50 51 51 52 52 52 53 53 53 53 53 53 53 53 53 53 52 52 51 51 51 51 50 50 50 49 48
46 47 47 47 47 48 49 49 49 49 50 50 50 50 50 50 51 52 52 53 53 53 54 54 54 54 54 54 53 53 52 52 52 52 51 50 50 50 50 50 49 49 48
47 47 47 47 48 48 49 49 50 50 50 51 51 51 51 51 52 53 53 54 54 54 54 54 54 54 54 53 53 53 52 52 52 51 50 49 49 49 49 49 49 48 48
47 47 47 48 49 49 50 50 50 50 50 50 50 51 51 52 52 53 53 54 54 54 54 54 53 53 53 53 53 53 52 52 51 50 49 49 48 48 47 47 48 47 47

GEFSMA_500_meanwind_180.txt.gz
Wind_Speed
27 26 25 24 23 23 22 22 22 22 23 23 23 24 24 25 25 25 26 26 25 25 25 26 26 26 26 26 26 26 26 26 27 27 27 27 27 27 27 28 28 28 29
29 28 27 26 25 25 25 25 25 25 25 25 26 26 26 27 27 27 27 27 27 27 27 27 27 27 27 27 28 28 28 28 28 28 28 28 28 29 29 29 30 30 31
30 30 29 28 27 27 27 27 27 26 27 27 28 29 28 28 28 28 28 29 29 29 29 29 29 29 29 29 29 29 29 30 30 30 30 30 31 31 31 32 32 32 33
31 31 30 29 28 28 28 28 28 28 28 29 30 30 30 29 29 29 30 30 30 30 31 31 31 31 31 31 31 31 32 32 32 32 32 32 32 33 33 34 34 35 35
32 31 31 30 30 29 29 29 29 30 30 30 30 31 31 31 31 32 32 32 32 32 32 32 32 32 33 33 33 34 34 34 34 34 34 35 35 35 36 36 37 37 38
32 31 31 30 30 31 31 31 31 31 31 32 32 32 32 33 33 33 33 33 33 33 33 33 33 34 34 35 35 36 36 36 37 37 38 38 38 38 38 39 39 40 40
33 33 32 32 31 31 32 33 33 33 33 33 33 33 33 34 34 34 34 34 34 34 34 35 35 35 35 36 37 37 38 39 39 39 40 40 40 40 41 41 42 43 43
34 34 34 32 32 33 33 34 34 34 35 35 34 34 34 34 35 35 35 35 36 36 36 36 36 37 37 38 39 39 40 40 40 41 41 41 42 42 43 44 44 45 45
34 35 34 33 33 33 34 35 35 36 36 36 36 36 36 36 36 36 36 36 37 37 37 38 38 39 39 40 41 42 42 42 42 42 42 43 43 44 45 46 46 47 47
34 34 34 34 34 35 36 36 37 37 37 37 38 37 37 36 36 36 37 37 38 38 39 39 40 40 41 42 42 43 43 43 44 44 44 45 45 46 47 48 48 48 49
33 33 34 35 35 36 36 36 37 38 38 38 38 38 38 38 37 37 37 38 40 40 41 41 42 42 42 42 42 43 43 44 45 46 46 47 47 48 48 48 48 48 49
34 34 33 34 35 36 37 37 37 39 39 39 39 39 40 40 40 40 40 40 40 41 42 42 43 42 42 42 43 44 45 46 47 48 49 49 49 49 49 49 49 49 49
34 34 34 34 36 38 39 39 39 39 39 39 40 40 40 41 42 42 42 42 42 42 43 43 43 44 44 45 46 47 48 49 50 50 50 51 51 51 51 51 50 50 51
35 35 35 36 37 38 39 40 40 40 41 41 41 41 42 42 43 44 44 44 44 44 45 46 46 46 47 48 49 49 50 50 51 51 51 52 52 52 52 51 51 52 51
36 36 37 37 38 39 39 40 41 41 42 43 43 44 45 45 45 45 46 46 47 46 47 48 49 49 49 50 51 51 51 52 52 52 53 53 53 53 53 52 52 52 52
38 38 39 40 40 41 41 42 42 43 44 44 45 46 46 46 46 47 48 49 49 50 49 50 51 51 51 52 53 53 53 53 53 53 54 54 54 54 54 54 54 53 53
39 40 41 42 42 42 43 43 43 44 44 45 46 47 48 48 47 48 49 50 51 52 52 52 52 53 54 53 54 54 54 54 55 55 55 55 55 55 55 55 54 54 54
40 41 42 43 43 43 44 44 44 45 45 46 47 48 49 50 50 50 51 51 52 52 53 52 52 53 53 53 53 54 55 55 55 56 56 56 55 55 55 55 55 55 54
41 42 43 44 44 44 44 45 46 46 47 47 48 49 49 50 51 51 52 52 53 53 53 53 53 53 53 54 54 54 55 55 55 56 56 55 55 56 55 55 54 54 53
43 44 45 45 46 46 46 46 47 47 48 49 49 49 50 51 52 52 52 52 53 53 54 54 54 54 54 55 55 55 55 55 56 56 56 56 56 56 55 55 54 53 52
45 46 46 47 47 47 47 47 48 49 49 49 50 50 51 52 52 53 53 53 53 53 53 54 54 54 55 55 55 55 55 56 56 56 56 57 56 56 55 55 54 53 52
47 47 48 48 48 48 48 49 49 49 50 50 50 51 51 52 53 53 53 54 54 54 53 54 54 54 55 56 56 56 56 56 56 56 56 56 56 55 55 54 53 52 52
48 48 49 49 49 49 49 49 49 49 50 50 51 52 52 53 53 53 53 53 54 53 54 54 54 55 55 56 56 56 56 56 56 56 56 55 55 55 54 53 52 51 51
49 49 49 49 49 50 50 50 50 51 51 52 52 52 53 53 54 54 53 53 53 54 54 54 55 55 56 56 56 56 56 56 55 54 54 53 53 52 52 52 52 51 50
50 50 50 50 50 50 51 51 52 52 52 52 52 52 53 54 54 55 55 54 54 55 55 55 55 55 55 55 55 55 55 54 53 52 52 51 51 51 51 51 51 50 49
51 51 51 51 51 52 52 53 53 53 53 53 53 53 54 54 54 55 55 54 55 54 55 54 54 54 54 54 54 53 53 52 52 51 51 51 51 52 51 51 51 50 49

GEFSMA_500_meanwind_186.txt.gz
Wind_Speed
29 27 27 26 26 25 24 23 23 22 21 21 21 21 21 21 22 22 22 22 22 23 23 24 24 24 24 25 25 26 25 25 25 25 25 25 26 26 27 27 28 28 28
30 28 28 27 26 26 25 25 24 24 23 22 22 21 22 22 22 23 23 24 24 25 25 26 26 26 26 27 27 27 27 26 26 27 27 27 28 28 29 29 30 30 30
30 29 28 27 28 27 27 26 25 24 25 24 24 23 23 24 25 25 25 25 26 27 27 27 27 28 29 29 29 29 29 28 29 29 29 30 30 30 31 31 32 32 33
32 30 29 28 29 29 29 29 27 27 26 25 25 25 25 25 26 27 27 28 28 28 28 29 29 30 31 31 31 31 31 31 31 31 31 32 32 32 33 33 34 34 34
33 32 30 29 29 29 30 29 29 28 28 28 27 27 27 27 28 29 29 30 30 30 30 30 31 31 32 32 32 32 33 33 33 33 33 34 34 34 35 35 35 36 36
32 32 30 29 29 30 31 31 31 30 30 29 29 29 29 30 30 31 30 31 32 32 33 33 33 33 34 34 34 34 34 35 35 35 36 36 37 37 37 37 37 38 38
32 32 31 31 31 32 33 33 33 32 32 31 31 31 30 30 30 32 32 33 33 34 34 34 35 35 35 35 36 36 36 37 37 38 38 38 39 39 39 39 39 39 40
33 32 32 31 32 32 33 34 35 35 34 33 33 32 32 33 32 32 33 34 34 35 35 36 36 36 37 37 37 37 38 38 39 40 40 40 41 41 41 41 41 42 42
33 33 34 34 33 33 34 35 35 36 35 35 34 34 34 34 35 35 34 35 36 36 37 38 38 39 39 39 39 39 40 40 40 41 41 42 42 42 43 43 43 44 45
32 34 34 35 35 34 34 35 36 37 37 37 37 37 38 37 37 37 37 37 38 38 38 38 39 40 40 40 41 42 42 42 42 43 43 44 44 45 45 46 46 46 46
33 34 34 35 36 36 35 35 35 37 37 37 38 39 39 39 39 38 39 39 40 39 40 39 40 40 41 42 42 43 43 44 44 45 45 46 47 47 48 48 48 48 48
35 34 35 35 36 37 38 38 38 38 38 39 39 40 40 40 40 40 39 40 40 41 41 41 41 41 42 43 44 44 45 46 47 47 48 48 49 49 49 49 49 49 49
35 36 35 35 36 37 38 39 39 39 39 40 41 41 42 43 42 42 42 42 42 42 42 43 43 43 44 45 46 47 47 48 49 49 50 50 51 51 51 51 50 50 50
34 36 36 36 37 37 39 40 40 40 41 41 42 43 44 44 45 44 44 44 44 44 44 45 46 46 46 47 48 49 49 50 50 51 52 52 52 51 51 51 51 51 51
33 34 35 37 38 38 39 40 41 41 41 42 42 43 44 45 46 47 47 46 46 46 46 47 48 49 49 49 49 50 51 52 52 53 53 53 53 52 52 52 52 52 52
34 35 34 36 38 39 40 41 41 41 42 42 43 44 45 47 48 49 49 48 48 49 49 49 50 51 51 51 51 52 52 52 53 53 53 53 52 52 53 53 53 53 53
36 37 38 38 39 40 40 41 42 43 44 45 46 47 48 49 50 50 50 50 51 52 52 51 52 52 52 52 52 52 53 53 53 53 53 53 54 54 54 54 54 54 54
39 40 40 39 39 40 41 42 43 44 45 46 47 48 49 50 51 51 52 52 53 54 54 54 54 54 54 53 53 53 54 54 54 54 54 54 55 55 55 55 55 55 54
40 41 41 41 41 42 42 44 45 46 47 47 48 48 49 50 51 52 53 53 54 55 55 55 54 54 54 54 54 54 55 55 55 55 55 55 55 55 55 55 55 54 54
41 42 43 44 44 45 45 45 46 47 48 48 48 49 50 51 51 52 52 53 54 54 54 54 54 54 54 54 55 55 56 56 56 56 56 56 56 56 56 55 55 54 54
43 44 44 45 45 46 47 47 48 48 49 49 51 51 51 51 51 52 52 53 53 54 54 55 54 54 54 54 55 56 56 56 56 56 57 57 57 56 56 55 54 54 54
44 45 46 46 46 47 47 48 49 50 50 51 51 51 51 51 52 52 52 53 54 54 55 55 56 56 55 56 56 56 56 57 56 57 57 57 57 56 56 55 54 54 54
45 46 46 47 47 48 49 49 50 51 51 51 52 52 52 52 52 52 53 53 54 55 56 56 56 56 56 57 57 57 57 57 57 56 56 56 56 55 54 54 54 54 54
47 47 48 49 49 50 51 51 52 53 53 53 53 53 53 53 54 54 54 55 55 56 57 57 57 57 57 57 57 57 57 56 55 55 55 55 54 54 53 54 54 54 54
48 49 50 51 51 52 52 53 53 53 53 52 52 53 53 54 54 55 56 56 56 56 56 56 56 56 56 56 56 56 55 55 55 54 54 54 53 53 53 53 53 53 53
49 50 51 51 51 52 52 53 53 53 52 52 52 53 54 54 55 56 56 56 55 55 55 55 55 55 55 55 55 54 54 54 54 53 53 53 53 53 52 52 52 52 52

GEFSMA_500_meanwind_192.txt.gz
Wind_Speed
36 35 34 34 33 30 29 27 26 25 25 24 23 22 22 21 21 22 22 21 21 21 22 22 22 22 22 23 23 24 24 24 24 24 25 25 25 25 26 26 26 26 26
36 35 34 34 34 33 31 29 28 27 26 25 24 23 23 23 23 23 23 23 23 24 24 24 24 24 24 25 25 25 26 26 27 26 27 27 27 28 28 28 28 28 28
36 35 33 34 34 34 32 30 30 29 28 27 26 25 25 25 24 24 24 24 24 25 25 26 26 26 26 26 27 27 28 28 28 28 29 29 30 30 30 30 31 31 31
37 36 34 34 33 33 31 31 30 29 28 28 27 27 26 26 25 25 25 26 26 26 26 27 27 27 27 28 29 29 29 30 30 30 30 31 31 31 32 32 33 34 34
37 37 36 35 33 32 32 31 31 30 30 29 28 28 28 28 28 27 27 27 28 28 28 29 29 29 29 29 30 30 30 31 31 32 32 33 33 33 34 34 35 35 36
37 35 35 34 33 33 32 32 32 32 32 31 30 30 29 29 29 29 29 29 29 29 29 29 30 30 31 31 32 32 32 32 33 34 34 35 35 36 36 36 36 37 37
38 36 35 35 34 34 34 33 33 34 34 34 33 32 31 30 30 30 30 30 29 30 30 31 31 32 32 33 34 34 34 35 35 36 36 37 37 37 38 38 38 38 39
37 36 35 35 34 34 33 34 35 35 35 35 35 34 33 32 32 32 32 32 32 32 32 32 33 34 34 35 36 36 36 37 38 38 39 39 39 40 40 40 41 41 41
39 38 37 37 36 35 35 35 35 35 35 36 36 36 35 34 34 34 35 35 35 36 36 36 35 36 36 37 37 38 38 39 40 40 40 41 42 42 43 43 43 44 44
38 38 37 36 36 36 36 35 36 36 35 36 36 36 37 36 36 36 37 37 38 38 38 37 37 38 39 38 39 40 40 41 41 42 42 43 44 45 45 45 46 46 46
38 38 38 38 38 37 37 36 37 36 36 36 37 37 37 38 39 38 38 38 39 39 40 39 39 39 40 41 41 41 42 42 43 44 45 45 46 46 47 48 48 48 48
37 38 39 39 38 37 37 37 38 38 38 38 38 39 39 41 42 42 41 40 40 41 41 40 40 41 42 43 44 44 45 45 45 46 47 48 48 49 49 49 49 50 50
37 37 37 37 37 37 36 37 37 38 39 40 40 40 40 41 42 43 43 42 42 42 42 43 43 44 44 45 46 47 47 47 48 48 49 49 50 50 50 50 51 51 51
37 37 36 37 37 37 38 38 38 39 40 40 41 41 42 42 43 44 44 44 44 44 44 45 45 46 47 47 48 48 49 49 50 50 50 50 50 51 51 52 52 52 52
36 37 38 38 39 38 38 38 38 39 41 42 42 43 44 44 44 44 45 45 45 46 46 47 48 49 49 49 49 49 50 51 51 52 52 52 52 52 52 52 53 53 52
36 36 37 38 38 38 39 39 39 41 42 42 43 44 44 45 45 45 45 46 47 48 49 49 50 51 51 50 51 50 51 52 52 53 53 53 53 53 53 53 54 54 53
35 35 36 37 38 38 38 38 38 39 41 42 43 44 44 45 46 46 47 48 49 50 50 51 52 52 52 52 51 51 52 53 53 54 54 54 54 54 55 55 55 55 54
35 34 35 37 38 37 38 38 39 40 40 42 43 43 44 46 47 48 49 50 51 51 52 52 52 52 52 53 53 54 53 54 54 55 55 55 55 56 56 56 56 56 55
36 36 37 38 39 39 40 40 41 42 42 43 44 45 46 47 47 48 49 50 51 51 52 52 53 54 54 55 54 55 55 55 55 56 56 56 56 57 57 57 57 56 56
38 39 39 40 40 41 42 42 43 43 44 45 46 47 48 49 49 50 50 50 51 52 52 53 53 54 55 55 55 55 55 55 55 56 56 56 56 56 56 56 56 56 56
39 40 40 41 41 42 43 44 44 45 46 47 48 49 50 50 51 52 52 52 53 53 53 53 53 54 54 54 55 56 56 56 56 56 56 57 57 56 56 56 56 56 56
40 41 41 42 42 43 44 45 46 47 48 49 50 51 51 51 52 52 53 53 52 52 53 53 53 53 54 55 56 56 56 56 56 56 56 55 55 55 56 56 56 56 56
40 41 43 44 44 44 45 46 47 49 50 51 51 51 51 52 52 52 53 53 52 53 53 53 53 54 55 55 56 57 57 57 56 55 55 54 54 54 55 55 55 55 55
42 43 44 46 47 47 48 48 49 50 51 51 52 52 52 52 52 52 52 52 52 52 53 53 54 54 55 56 56 56 56 56 55 55 55 54 54 54 54 54 54 54 53
43 44 45 46 47 48 49 50 51 52 52 52 53 53 53 53 53 52 52 52 52 52 53 53 54 55 56 56 56 56 55 55 54 54 55 54 53 53 52 52 52 52 52
43 45 46 47 47 48 49 51 51 51 51 51 52 52 53 53 53 53 54 54 53 53 54 54 54 55 55 56 56 56 55 55 54 54 54 54 54 53 52 51 51 52 52

GEFSMA_500_meanwind_198.txt.gz
Wind_Speed
40 39 37 36 36 35 34 33 33 32 30 29 28 27 26 25 24 23 23 23 22 22 22 22 21 21 21 22 22 22 22 23 23 23 23 23 24 24 24 25 25 25 25
41 39 38 38 36 36 36 35 34 34 32 31 29 28 28 26 26 25 24 24 24 23 24 24 23 23 24 24 24 24 24 24 24 24 25 25 25 26 26 26 27 27 28
42 41 40 39 38 37 37 36 35 34 35 33 31 30 29 29 27 27 26 26 25 25 25 25 25 26 26 26 26 26 26 26 26 27 27 28 28 28 28 29 29 30 30
43 43 41 41 39 38 38 37 36 36 36 36 34 32 31 30 29 28 27 27 27 27 27 27 27 27 27 27 27 28 28 28 28 29 29 30 30 30 31 31 31 32 32
43 43 42 42 41 39 38 37 38 37 37 37 36 34 33 31 30 29 29 29 29 29 29 28 29 29 28 29 29 29 29 29 30 30 31 31 32 32 33 33 33 34 34
43 42 42 41 40 38 38 37 37 37 37 37 36 35 34 33 32 31 31 31 31 31 30 30 30 31 30 30 31 31 31 31 32 32 33 33 33 34 34 35 35 36 36
43 42 43 41 40 40 40 38 37 38 38 38 37 36 36 35 34 33 34 33 33 33 33 33 34 34 33 33 33 33 33 34 35 36 36 36 36 36 37 37 37 38 38
43 42 42 42 40 40 40 40 38 38 37 38 39 39 38 37 36 36 36 36 36 35 36 35 36 36 37 36 36 36 37 36 36 37 38 38 39 39 39 39 40 40 41
41 42 42 43 43 41 40 40 39 39 38 39 40 41 41 40 39 38 38 38 37 37 37 37 37 38 37 38 38 39 40 39 39 39 39 40 40 41 41 42 43 43 44
40 42 42 42 42 42 41 40 40 40 40 40 40 40 40 40 40 39 39 40 40 39 39 39 40 40 39 39 40 40 41 40 40 41 42 42 43 43 44 45 45 46 46
40 42 44 43 41 40 41 41 41 41 41 41 41 41 41 40 40 41 40 40 40 41 41 41 42 42 41 41 42 42 42 43 42 43 44 44 45 46 46 46 47 48 48
38 40 43 44 42 40 40 41 41 42 42 41 41 41 41 41 41 41 41 41 41 42 42 42 43 43 44 43 44 44 44 44 44 45 46 46 47 48 48 49 49 49 49
37 39 41 44 44 42 41 40 41 40 40 41 40 40 42 42 42 42 42 42 42 42 43 44 44 45 46 47 47 46 46 46 46 47 48 49 49 49 50 50 50 50 51
37 38 40 42 43 43 44 43 42 42 42 43 43 42 43 44 44 44 44 44 44 44 45 46 47 47 48 48 48 48 48 48 49 50 50 50 51 51 52 52 52 53 53
36 36 38 40 41 41 41 41 42 42 43 44 44 44 45 45 45 46 46 46 46 47 47 48 49 48 48 48 49 49 50 50 51 51 52 52 53 53 53 53 54 54 53
35 35 38 38 38 38 39 40 41 43 43 43 42 43 44 45 45 45 46 46 46 47 48 48 48 49 49 50 50 51 52 52 53 54 54 54 54 54 54 55 55 55 55
34 35 36 36 37 38 39 40 41 43 43 42 42 43 44 44 44 45 46 46 47 47 48 48 49 50 51 52 52 53 54 54 54 54 55 55 55 55 55 55 55 56 56
35 35 36 37 38 38 39 40 40 41 42 42 43 44 45 44 44 45 45 46 47 48 48 49 50 51 52 53 54 55 55 54 54 54 55 56 56 56 56 56 57 57 57
35 35 36 37 39 39 39 40 40 41 42 43 44 44 44 45 45 46 46 47 48 48 48 50 51 52 53 54 54 55 55 55 55 55 55 56 56 56 57 57 58 58 58
35 36 37 38 39 39 39 39 40 42 43 44 44 45 45 46 46 47 47 48 49 49 50 51 52 53 54 55 55 55 55 56 56 55 55 56 56 57 58 58 58 58 58
34 35 36 37 38 39 39 39 40 41 43 44 45 45 45 46 46 47 48 48 49 50 52 52 53 54 54 55 55 55 55 55 56 56 56 57 56 57 57 58 57 57 57
35 36 36 36 38 39 39 40 41 41 42 43 44 45 45 46 47 48 49 50 51 52 53 53 53 54 54 55 55 55 55 55 56 56 57 56 56 56 56 57 57 58 58
35 36 36 37 38 39 40 41 41 42 43 43 44 45 46 48 49 50 51 52 53 54 54 55 54 54 55 55 55 55 56 56 56 56 56 56 57 56 56 57 58 58 58
33 34 35 37 38 39 41 42 43 44 44 45 46 47 48 49 51 52 52 53 53 54 54 54 54 54 55 55 56 56 56 56 56 57 57 57 57 57 57 57 57 57 57
34 36 36 37 38 40 42 44 44 45 46 47 49 49 49 50 50 51 52 53 53 53 53 54 54 55 56 56 56 57 57 57 56 56 57 57 56 56 56 56 56 56 55
35 37 38 39 40 41 43 44 44 45 47 48 50 51 51 51 51 51 52 53 53 53 54 54 54 54 55 55 56 56 57 57 56 56 55 56 55 55 54 55 55 55 54

GEFSMA_500_meanwind_204.txt.gz
Wind_Speed
38 37 37 37 37 37 37 36 34 34 34 33 32 31 30 29 28 26 25 25 25 24 24 23 23 22 22 22 21 21 21 21 22 22 23 23 23 24 24 24 24 25 25
38 38 37 37 37 38 38 38 36 34 34 35 35 34 32 31 29 28 27 27 26 26 25 25 24 23 23 23 23 24 24 24 24 24 25 25 26 26 26 26 26 26 27
38 38 39 38 38 38 38 38 37 37 37 35 35 35 35 34 32 30 29 28 28 28 27 27 26 26 25 25 26 26 26 26 26 26 27 28 28 28 28 28 28 29 29
39 39 40 40 39 39 39 39 39 38 38 38 37 36 35 35 34 32 30 29 29 30 29 28 28 28 28 27 27 28 28 28 28 29 29 29 30 30 30 31 31 31 31
39 39 40 41 41 40 41 40 39 39 39 39 39 38 37 35 35 35 33 32 31 31 31 31 30 30 30 30 30 30 30 30 30 31 31 32 32 32 32 33 33 34 34
40 39 41 41 42 42 42 43 42 41 40 39 40 40 39 38 37 37 35 33 32 32 32 32 32 32 32 32 32 32 32 32 32 33 33 34 34 34 34 35 35 35 36
40 39 41 41 42 42 42 41 41 41 41 40 40 41 39 39 38 38 37 36 35 34 34 34 34 35 34 34 34 34 34 35 34 34 35 35 35 35 36 36 37 37 38
41 40 40 41 42 42 43 43 42 42 42 41 40 40 39 39 39 39 39 37 36 36 36 35 36 36 36 35 36 36 36 36 36 37 37 37 38 38 39 39 39 40 40
41 42 40 42 42 43 42 42 41 42 42 42 42 41 40 40 40 40 40 39 38 37 37 37 37 37 37 37 37 37 37 37 37 38 39 40 40 41 41 41 41 42 42
40 43 41 42 43 43 43 43 42 42 42 42 41 41 41 41 42 42 41 41 40 39 39 39 38 39 38 38 39 39 39 40 40 41 41 41 42 42 43 43 43 44 44
39 41 42 43 44 44 45 45 44 43 43 43 42 42 42 42 43 43 42 41 41 42 42 41 41 40 41 41 40 41 41 42 42 43 43 44 44 44 45 45 45 46 46
37 39 40 41 43 44 45 45 45 45 43 43 43 43 43 42 42 42 43 42 42 42 43 41 41 42 42 42 42 43 42 43 44 45 45 46 46 47 47 47 48 48 48
35 36 39 41 43 44 45 46 45 46 46 45 44 44 44 43 44 43 43 43 43 43 43 43 43 43 43 43 43 44 44 45 46 46 47 47 48 48 49 49 50 50 50
34 35 37 40 42 44 45 45 46 46 47 48 47 45 45 44 44 44 43 43 43 43 43 43 44 44 44 45 45 46 47 48 48 48 49 49 49 50 51 52 52 51 51
34 37 37 38 41 42 44 46 46 47 47 48 48 47 46 45 45 45 45 44 44 44 44 44 44 45 45 45 45 46 47 48 48 49 50 51 51 52 52 53 53 53 53
33 36 38 39 40 42 43 44 46 47 47 48 48 48 47 47 47 47 47 46 46 46 46 45 46 46 46 47 47 48 48 48 49 50 51 52 53 53 54 54 54 54 55
33 34 36 38 39 40 42 43 45 46 46 47 48 48 49 48 47 48 48 47 46 46 47 47 47 47 47 47 47 47 48 49 50 51 52 52 53 55 56 56 56 57 57
34 35 36 36 37 39 41 42 43 43 45 46 47 48 48 47 48 49 49 48 47 46 47 47 48 48 48 48 48 48 50 51 51 52 53 54 55 56 56 57 58 59 59
33 35 37 38 38 38 39 39 40 42 44 45 45 46 46 47 47 47 48 48 48 47 47 47 48 49 49 49 49 50 51 52 53 53 54 55 56 57 57 59 59 59 59
31 34 35 36 38 38 38 38 39 40 41 42 43 44 44 45 46 47 48 49 49 49 49 48 49 50 50 51 51 52 52 53 54 55 56 56 57 58 59 59 59 59 60
31 32 33 34 35 36 36 37 38 38 40 41 43 44 44 45 45 46 48 48 49 50 50 50 50 51 52 52 53 54 54 55 55 56 57 58 58 58 59 59 60 60 60
32 33 33 33 34 35 36 37 38 39 40 41 43 45 45 44 45 46 47 48 49 50 51 51 52 52 53 54 55 56 56 56 56 57 58 58 59 59 59 60 61 61 61
31 32 33 34 35 36 37 38 39 39 40 42 43 43 44 44 45 46 48 49 50 51 52 52 53 53 54 55 57 57 57 57 58 59 59 59 60 60 61 61 62 62 62
31 32 33 34 35 37 38 39 39 39 39 40 41 43 44 44 45 46 48 49 50 51 51 52 53 53 55 56 56 57 58 58 59 60 60 61 61 61 61 61 62 62 61
31 32 33 33 34 35 37 37 38 38 39 39 40 41 42 43 45 46 48 49 49 50 51 52 53 53 54 55 56 58 58 59 59 59 60 60 60 60 60 60 61 61 60
32 33 33 33 33 34 35 36 37 37 38 39 41 43 44 45 46 47 47 48 48 49 51 52 53 54 54 55 56 57 58 59 59 60 60 60 60 60 59 59 60 59 58

GEFSMA_500_meanwind_210.txt.gz
Wind_Speed
39 40 40 40 39 38 38 37 36 36 35 34 34 34 34 33 32 31 30 28 27 28 27 25 24 23 22 22 21 21 21 21 20 21 21 21 21 21 22 22 23 23 24
39 40 40 40 40 39 39 38 38 37 36 36 35 35 36 35 34 33 32 31 29 29 28 28 27 25 25 24 23 23 23 23 23 23 24 24 24 24 24 24 25 25 26
40 40 39 39 40 41 40 40 39 39 38 38 38 37 36 36 36 36 35 33 32 31 30 29 29 28 27 26 26 25 25 25 25 25 26 26 26 26 27 27 27 27 28
39 40 40 39 40 41 41 41 41 40 39 39 39 39 38 37 37 37 36 35 34 33 32 31 30 30 29 29 28 28 28 28 28 28 28 28 28 28 28 28 29 29 30
38 39 39 40 41 42 42 41 41 41 41 41 40 40 40 39 38 38 37 36 36 35 34 34 33 32 32 32 31 30 30 30 30 30 30 30 30 30 30 30 30 30 31
38 39 39 40 41 42 43 42 42 42 42 42 42 41 40 40 39 39 39 39 38 37 36 35 35 34 33 33 33 32 32 31 32 32 32 32 32 31 31 31 32 32 33
39 39 40 42 42 41 42 43 42 42 43 43 43 43 42 42 41 41 40 40 40 39 38 37 36 35 35 34 34 34 34 35 34 33 33 33 33 33 33 33 34 34 35
39 40 40 41 42 42 43 43 42 42 43 43 43 44 43 43 43 43 41 41 41 40 39 39 38 37 36 36 35 35 35 36 35 35 34 34 35 35 35 36 36 36 36
38 39 40 42 42 43 43 43 42 42 42 42 42 43 44 44 43 42 42 41 40 40 40 39 39 39 38 37 36 37 37 36 36 36 36 37 37 37 37 37 38 38 39
37 39 40 41 42 42 43 43 43 43 43 44 44 45 45 44 44 43 43 42 41 41 41 40 40 40 40 39 39 38 38 38 37 38 38 39 39 39 39 39 40 41 41
35 37 38 40 41 42 44 44 43 44 45 45 45 44 45 45 46 46 45 44 44 44 44 43 42 41 41 41 41 40 39 39 40 40 40 41 41 41 41 42 42 43 43
34 35 36 37 39 41 43 43 44 45 45 46 46 46 46 46 46 46 46 46 45 44 44 44 44 43 42 42 42 42 42 42 42 42 42 42 43 43 43 44 45 45 45
34 36 37 37 38 40 41 42 43 44 45 46 47 47 48 48 48 48 47 47 46 46 46 46 46 45 44 43 43 43 44 44 43 44 44 44 45 46 46 46 47 47 47
34 36 36 38 38 39 41 42 42 45 46 47 47 48 49 48 48 48 49 49 48 47 46 46 46 46 46 45 45 45 45 45 45 46 46 47 47 47 48 49 49 49 49
33 35 36 38 38 40 40 41 43 44 45 46 47 49 50 50 49 48 48 49 49 48 47 47 47 46 47 48 48 48 48 48 48 49 49 49 49 49 50 50 51 51 51
33 35 36 37 38 39 39 41 42 43 46 46 47 48 49 49 50 49 49 49 49 49 50 49 49 49 49 50 50 48 49 50 49 49 50 50 50 50 51 51 51 52 52
33 34 36 37 37 38 39 41 42 44 45 46 46 48 48 48 49 49 49 48 49 50 50 50 50 51 50 51 51 50 50 51 51 50 51 51 51 51 52 53 53 53 54
33 34 36 37 38 38 39 40 42 43 45 45 46 48 48 48 48 49 49 48 48 49 50 50 50 51 51 51 51 52 52 52 52 52 52 52 53 53 53 54 55 56 56
33 35 36 37 37 38 38 39 40 42 44 44 45 46 47 47 47 48 48 48 48 49 50 50 49 50 51 51 52 52 52 53 53 53 53 54 54 55 55 56 57 57 58
34 34 35 35 36 37 38 38 39 41 42 43 44 45 46 46 46 47 47 48 49 50 51 50 49 50 51 51 52 53 53 54 53 53 53 54 55 56 57 58 58 59 59
33 33 34 34 35 36 36 37 39 39 40 41 42 44 45 45 45 46 47 48 49 50 51 51 50 50 51 52 52 53 53 54 53 54 54 55 56 57 58 59 59 59 60
33 33 33 34 34 34 34 35 37 38 38 39 39 41 42 44 44 46 46 47 48 49 49 50 50 50 50 52 52 52 53 54 54 55 56 57 58 58 59 59 59 59 60
31 32 32 32 32 32 33 34 34 35 37 38 38 39 40 42 43 44 46 46 47 47 47 48 49 49 50 51 52 52 53 54 55 56 57 57 58 59 59 59 59 59 60
30 31 30 30 31 31 32 34 34 35 36 38 38 39 40 41 42 44 45 45 46 47 47 48 48 48 49 50 51 52 52 54 55 56 57 57 58 58 58 58 59 60 61
30 29 29 30 30 30 31 32 33 35 35 36 37 38 40 41 42 43 44 45 45 46 46 47 49 49 50 51 52 52 53 54 55 56 57 57 57 57 57 57 58 60 60
28 29 29 29 29 30 31 32 33 34 34 36 38 39 40 41 42 43 43 44 45 45 46 47 49 50 51 51 52 52 53 54 54 54 54 55 56 57 56 56 57 58 58

GEFSMA_500_meanwind_216.txt.gz
Wind_Speed
35 34 34 34 34 34 35 36 36 35 34 34 34 34 33 33 33 33 31 31 30 30 30 29 28 27 26 25 24 23 23 22 22 21 20 20 20 20 20 21 21 22 22
36 36 36 35 36 36 36 36 37 37 36 35 35 36 35 34 35 34 33 33 32 32 31 31 30 29 28 27 27 26 25 25 24 24 24 23 23 23 23 23 23 23 23
36 36 36 37 37 37 37 38 38 38 38 37 37 37 37 36 36 36 35 35 35 34 33 32 32 32 31 30 29 28 28 27 27 26 27 26 25 25 25 25 25 25 26
36 37 37 37 38 38 38 38 39 39 39 39 39 39 39 39 38 37 37 37 37 36 35 34 34 34 34 33 32 30 30 29 29 29 29 29 28 27 28 28 28 28 28
36 37 37 38 38 39 39 39 40 40 41 40 41 40 40 41 41 40 39 39 38 38 38 37 36 35 35 34 34 33 32 32 31 31 31 31 30 30 30 30 30 30 30
36 37 37 36 37 39 40 40 40 42 42 42 42 42 42 43 43 42 41 40 40 39 39 39 38 37 37 37 37 36 35 34 33 33 33 33 33 32 32 31 31 31 31
36 37 37 37 37 38 39 41 41 42 42 43 43 43 43 44 43 43 42 42 41 41 41 41 40 40 39 40 39 38 37 36 36 36 35 35 35 34 33 33 32 32 32
36 37 37 36 37 38 39 41 41 42 43 43 43 44 45 45 45 43 43 42 42 42 42 41 41 41 41 41 40 39 38 38 37 37 36 37 37 36 35 34 33 34 34
36 37 36 36 37 38 39 41 42 42 43 43 45 46 46 46 45 45 44 45 44 43 41 42 43 42 42 42 41 41 40 40 40 39 38 38 38 37 36 36 36 36 36
36 37 36 36 37 38 39 41 42 43 43 43 45 46 46 46 46 46 46 46 45 43 43 43 43 42 42 42 43 42 42 41 41 41 40 40 40 39 39 38 39 39 39
36 37 36 36 37 38 39 40 42 43 44 45 46 46 46 47 47 46 45 44 45 45 44 44 44 44 44 44 43 43 43 42 42 42 41 40 41 41 41 41 41 41 42
36 36 35 35 36 38 39 41 41 42 43 44 44 45 45 46 46 46 46 45 45 45 45 46 46 46 46 46 45 45 45 45 44 43 43 42 42 43 43 43 43 43 44
35 36 36 36 36 38 39 40 40 40 41 42 43 44 44 44 45 46 46 45 46 45 46 46 46 47 47 47 47 47 46 46 46 45 45 45 44 44 44 45 45 46 46
35 36 36 36 36 36 37 38 39 39 39 40 42 43 44 44 45 47 47 47 46 46 47 47 47 48 47 47 48 47 47 48 47 47 47 47 46 46 46 47 47 47 48
35 36 37 36 35 35 36 37 38 39 39 40 40 41 43 44 45 46 47 48 48 48 48 48 48 48 48 48 48 48 48 49 48 48 48 48 48 48 49 49 49 49 49
36 36 37 37 37 36 37 38 39 39 39 40 40 41 42 44 44 46 47 48 48 48 48 49 49 48 49 49 49 50 50 49 50 49 49 50 50 50 50 51 52 51 51
36 36 36 37 37 37 37 38 39 38 39 39 41 42 44 44 45 45 47 48 48 48 48 48 49 50 50 51 51 51 51 51 51 51 51 51 51 51 52 52 52 52 52
35 36 37 37 37 37 37 37 38 38 39 40 41 42 42 43 43 45 46 47 47 47 47 48 49 49 50 52 52 52 51 51 52 52 52 53 53 53 53 53 53 53 54
34 35 36 36 37 36 37 37 38 39 40 40 40 41 41 42 42 42 43 45 45 46 47 48 48 49 50 50 51 51 51 52 52 53 53 53 54 54 54 55 55 55 56
35 35 35 35 36 36 36 37 38 39 40 40 40 41 42 41 42 42 42 43 44 45 46 47 47 48 49 49 50 50 51 52 52 52 52 53 54 54 55 56 56 57 57
35 36 36 36 36 36 36 37 37 38 39 40 41 41 42 42 41 42 42 43 44 44 44 45 46 46 48 48 49 49 50 51 51 51 52 53 54 54 55 56 57 57 57
35 35 35 35 35 36 36 36 36 37 38 39 40 40 41 42 42 42 42 42 43 43 43 43 45 46 48 48 49 49 50 50 51 52 52 52 54 55 55 56 56 57 56
34 34 34 33 33 34 34 35 36 36 37 38 38 39 40 41 42 42 42 42 42 42 42 43 45 45 47 48 49 50 50 50 50 51 52 52 53 54 55 55 56 55 55
32 32 32 32 32 32 34 34 35 35 36 36 37 38 39 40 40 41 41 41 41 41 42 43 44 45 46 48 48 49 49 49 49 50 52 52 52 52 53 53 54 54 54
31 31 31 31 31 32 32 33 35 35 35 36 36 37 38 38 39 39 40 40 40 41 42 42 43 45 46 47 47 47 48 48 48 49 50 51 51 51 52 52 53 53 53
31 31 31 31 32 32 32 33 34 34 34 34 35 36 36 37 38 39 40 41 41 42 42 42 43 44 44 45 45 46 47 47 48 48 49 50 50 51 50 50 51 52 53

GEFSMA_500_meanwind_222.txt.gz
Wind_Speed
34 34 34 34 34 33 33 33 32 33 33 33 33 34 35 34 35 34 34 33 33 32 31 31 30 30 29 29 28 28 27 26 26 26 26 25 24 24 24 23 23 24 23
35 35 35 35 35 35 35 35 35 34 34 34 34 35 35 35 36 36 36 35 35 34 34 34 33 32 32 31 31 31 30 29 29 28 28 27 26 27 26 26 26 26 25
35 36 36 36 36 36 36 37 36 36 36 35 35 35 36 36 37 37 37 36 36 36 36 36 36 35 34 33 34 33 32 32 31 31 30 29 28 28 28 27 28 28 28
35 35 36 36 36 37 37 37 38 38 38 37 37 36 36 36 36 37 37 37 37 37 38 38 38 38 36 36 36 36 35 35 34 34 33 32 31 30 30 30 30 30 30
35 35 37 37 37 37 37 38 38 37 38 39 38 38 38 38 38 38 39 38 39 39 39 40 40 40 38 38 38 38 38 38 37 37 36 34 33 32 32 33 32 32 31
36 36 37 37 37 37 38 38 39 39 39 40 40 40 40 40 40 40 40 40 41 41 41 41 42 42 41 41 40 41 40 40 40 39 38 37 37 36 35 35 35 34 34
37 38 38 37 38 38 38 39 39 40 40 40 42 42 42 41 41 41 41 42 42 43 42 43 44 43 43 43 43 43 43 42 42 42 41 40 39 38 37 37 37 37 37
36 37 37 38 38 38 38 39 39 40 40 40 42 43 44 44 43 43 43 44 44 45 45 44 45 45 45 45 44 44 45 44 43 43 43 43 42 41 40 39 40 40 39
35 35 36 36 37 37 38 38 39 40 40 41 42 43 45 45 44 45 45 45 46 46 46 46 46 46 47 47 46 46 46 46 45 44 44 44 43 42 41 40 40 40 40
34 34 35 35 36 37 37 37 38 40 41 42 43 44 45 46 47 47 47 47 47 47 48 48 47 47 47 47 47 47 46 46 46 46 45 45 45 44 43 42 41 41 41
34 35 35 35 36 36 37 37 38 39 40 42 43 44 45 46 47 48 48 48 48 48 48 48 48 48 48 47 47 47 47 47 48 47 47 47 47 45 44 43 42 42 43
34 35 36 36 36 37 37 38 38 39 40 42 43 44 45 46 47 48 49 49 49 49 49 48 49 48 48 48 48 48 49 48 48 49 49 49 48 46 45 44 44 44 45
35 35 35 36 36 37 38 39 39 40 40 42 43 44 45 46 47 47 47 48 48 48 48 48 48 49 49 49 49 49 49 49 49 49 49 49 48 47 46 46 45 45 45
35 36 36 36 37 37 38 39 39 40 41 42 43 43 44 44 46 47 46 46 47 47 47 46 46 48 49 50 50 50 50 50 50 50 50 50 50 50 49 48 47 47 47
36 36 37 37 37 37 38 38 39 40 41 42 43 44 44 44 44 44 44 44 45 45 45 46 46 46 47 49 51 51 51 51 52 52 52 52 52 52 51 51 50 50 50
37 37 37 37 38 39 38 39 39 40 41 41 41 42 42 42 42 43 43 44 44 45 45 45 46 45 46 48 49 51 51 51 52 52 52 53 53 53 53 53 52 52 52
37 37 38 38 39 39 39 40 40 40 40 40 40 41 41 41 41 42 43 44 44 44 44 44 45 45 46 48 48 50 50 50 51 52 52 52 52 54 54 53 53 53 54
38 38 38 39 40 40 40 40 39 39 39 38 38 39 40 40 41 41 42 43 43 44 44 44 45 45 46 46 47 49 50 50 50 50 50 50 52 54 54 53 53 54 54
37 38 38 38 39 40 40 41 40 39 39 38 38 38 39 40 41 41 42 43 43 44 44 45 45 46 47 47 47 48 49 49 50 50 50 51 53 54 54 54 54 54 55
38 38 39 39 39 39 40 40 41 39 38 38 38 38 39 40 40 41 42 43 44 45 45 45 45 46 46 46 47 48 48 49 49 50 50 52 53 54 54 55 55 55 56
38 39 39 39 39 40 40 40 40 40 39 38 38 38 39 39 40 41 42 42 43 44 44 44 44 45 45 46 47 48 49 48 48 49 50 51 53 53 54 55 56 56 56
38 38 38 38 38 38 38 39 38 38 38 38 38 38 39 39 39 40 41 42 42 42 42 43 44 44 44 45 47 48 49 49 49 49 49 50 51 53 54 55 56 56 56
38 38 38 38 38 37 37 37 37 37 37 37 38 39 39 38 38 39 40 40 40 41 41 43 44 44 44 45 47 47 48 48 48 49 49 50 52 53 53 54 54 55 56
37 37 37 37 36 36 36 36 35 36 36 36 37 37 38 38 39 39 39 39 40 40 41 41 42 43 44 44 45 46 47 47 48 48 50 50 51 51 50 51 52 53 55
36 36 36 35 35 35 35 35 34 35 35 35 35 35 35 36 37 38 38 38 38 38 39 40 41 42 42 43 44 46 47 47 47 48 48 48 48 49 49 50 51 51 52
35 35 34 34 34 34 34 34 34 34 34 35 35 35 35 36 36 36 37 37 38 38 39 40 40 41 42 43 44 45 46 46 46 46 46 46 46 47 47 48 49 50 51

GEFSMA_500_meanwind_228.txt.gz
Wind_Speed
30 30 30 30 30 30 30 31 30 31 31 31 30 30 30 30 30 31 31 31 31 31 31 31 30 30 30 30 29 28 28 28 28 28 28 27 27 26 26 26 25 25 25
31 31 31 31 31 31 31 31 31 31 31 32 32 31 31 32 32 32 32 33 32 32 33 33 32 33 33 33 32 31 30 30 29 30 30 30 29 29 29 28 28 28 28
32 33 33 33 32 32 32 33 33 32 32 32 33 32 32 32 33 33 33 34 34 34 34 35 35 35 35 35 35 33 33 32 32 32 31 31 31 31 31 30 30 30 30
33 34 34 34 34 33 33 34 34 34 33 33 33 34 33 34 34 34 34 34 34 34 35 36 37 37 37 37 37 36 35 35 34 34 34 33 33 33 33 32 32 32 33
34 34 35 35 35 35 35 35 35 35 35 34 34 34 34 34 35 35 35 35 35 35 35 36 37 37 37 37 37 37 37 38 37 37 37 37 37 37 36 36 35 35 35
35 36 36 36 36 36 36 37 36 37 37 36 35 36 36 36 35 35 36 37 37 37 37 37 37 37 38 38 38 38 38 39 40 40 40 40 39 39 39 38 38 37 37
36 36 36 36 37 37 37 37 37 37 38 38 38 37 38 37 37 37 37 37 38 38 39 39 39 39 40 39 40 40 40 41 41 41 41 41 41 41 41 40 40 39 39
36 37 37 36 36 37 37 38 38 38 39 39 39 39 39 39 39 39 39 39 39 40 41 41 41 41 42 42 42 43 43 43 43 43 43 43 43 43 43 42 42 41 40
37 37 36 36 36 37 37 38 38 38 38 38 38 39 40 40 40 41 41 41 41 42 42 43 44 44 44 45 45 45 45 46 46 46 45 45 44 44 44 44 43 43 43
37 36 36 37 37 38 38 38 39 39 39 39 39 39 39 39 41 42 42 42 43 44 45 45 45 45 46 47 47 47 47 48 48 48 47 46 45 45 45 45 45 45 45
38 37 37 38 38 38 38 39 40 39 39 40 40 40 40 40 40 42 42 43 44 44 45 46 46 45 47 48 48 48 48 48 48 48 49 48 48 48 47 47 47 47 47
39 40 39 39 38 38 38 39 40 40 40 40 41 41 41 42 41 41 41 42 44 45 47 48 47 46 46 47 47 48 48 48 48 49 49 49 49 49 49 48 49 49 49
39 40 40 39 39 39 39 39 39 39 39 39 40 41 42 42 42 43 43 43 44 45 46 47 47 47 47 47 48 48 49 49 49 49 49 49 49 49 50 49 49 50 50
39 39 39 39 39 39 39 39 39 39 39 40 41 41 42 42 43 43 44 44 44 45 45 46 46 46 46 47 47 47 48 48 48 48 49 49 50 50 50 50 50 50 50
40 40 40 40 39 39 39 39 40 40 40 40 41 41 42 42 43 44 44 44 44 44 44 44 44 44 45 46 46 46 47 46 47 48 48 49 49 50 51 51 51 51 50
40 40 40 40 41 41 41 41 41 41 41 41 42 42 43 44 43 43 43 43 43 44 44 43 44 44 45 45 45 46 46 47 48 49 49 49 50 50 51 51 51 50 51
41 42 42 42 42 42 43 43 43 42 42 42 43 43 44 44 45 44 44 44 44 44 44 43 44 44 44 45 46 46 46 46 48 48 49 49 49 49 49 50 50 50 51
42 42 43 43 43 43 43 42 42 42 43 43 43 44 44 45 45 44 44 43 44 44 44 43 44 44 44 45 46 46 47 47 47 47 47 48 48 48 49 50 50 51 51
42 43 43 43 43 42 42 43 43 43 43 43 43 43 44 44 44 44 43 44 43 43 43 44 44 44 43 44 44 45 46 46 47 46 47 47 47 48 49 50 50 51 51
43 43 43 43 43 43 43 43 43 43 43 43 43 43 42 43 43 43 44 44 44 45 45 44 44 44 43 44 44 44 45 46 47 47 47 47 48 48 49 50 50 51 52
42 43 43 43 43 43 43 43 43 43 42 42 42 42 42 42 43 43 44 44 44 45 45 45 44 43 43 43 44 45 46 46 47 47 47 47 48 48 50 51 51 51 52
43 43 44 44 44 44 44 44 44 43 43 42 42 42 42 42 42 42 42 44 44 44 44 44 44 44 43 44 44 45 46 45 46 47 47 47 48 49 49 50 51 51 52
43 44 44 44 44 44 44 45 44 44 43 42 42 41 41 42 42 42 42 43 43 44 44 44 44 44 44 44 44 44 45 45 45 46 46 46 48 49 49 49 49 50 51
44 44 44 44 44 44 44 44 44 43 43 42 42 41 41 40 41 42 41 42 42 42 42 43 43 43 43 44 44 44 45 45 45 47 47 46 46 47 48 48 49 49 50
44 43 43 43 43 43 43 42 42 42 41 41 41 41 41 40 40 41 41 41 40 40 40 41 41 41 41 41 42 42 43 45 45 45 45 46 46 46 47 47 48 49 49
42 42 42 41 41 41 41 41 41 40 40 40 39 39 39 39 39 40 40 40 40 40 39 39 40 40 41 41 41 41 42 43 43 43 44 45 45 46 46 46 48 48 48

GEFSMA_500_meanwind_234.txt.gz
Wind_Speed
29 29 29 29 29 29 29 30 30 30 29 29 29 29 29 29 29 29 29 28 28 28 28 28 29 28 28 29 28 28 29 29 29 29 28 28 28 28 28 28 28 27 27
31 31 31 31 30 30 30 30 30 30 30 30 31 31 31 31 31 30 30 30 30 30 31 31 31 31 31 31 31 31 30 31 31 31 31 30 31 31 30 30 30 30 30
33 33 33 33 32 31 31 31 31 31 31 30 31 32 32 33 33 33 32 33 32 32 32 32 32 32 32 33 33 33 33 32 32 32 32 33 33 33 33 33 32 32 32
34 34 34 34 34 33 33 32 32 32 32 32 32 32 33 33 34 33 33 33 33 34 33 33 33 34 34 34 34 34 33 33 33 33 34 34 34 35 34 34 35 35 35
34 34 35 35 35 35 35 34 34 33 33 33 33 33 33 33 34 34 34 34 34 34 34 34 35 35 35 35 36 36 36 35 35 35 35 35 36 36 36 36 36 36 37
35 35 35 36 36 36 35 35 35 35 34 34 34 34 35 35 34 34 34 35 35 35 35 35 35 36 36 36 37 37 37 37 37 37 38 38 38 38 38 38 38 38 38
36 36 36 37 36 36 36 36 36 36 36 36 36 36 36 36 35 35 35 36 36 36 36 36 37 37 37 38 38 38 38 38 38 39 40 40 39 40 40 40 41 40 40
37 37 37 38 37 37 37 37 37 37 37 38 38 37 38 37 37 37 37 37 38 38 38 37 37 38 38 39 40 41 41 40 40 41 41 41 41 42 42 42 42 43 42
37 37 37 38 38 37 38 38 38 38 38 38 38 38 38 38 38 38 39 39 39 40 40 40 40 40 40 40 41 42 43 42 42 42 43 43 43 44 44 44 44 45 45
37 38 38 38 38 39 39 39 39 39 38 39 39 39 39 39 39 39 39 40 41 41 41 41 41 42 42 41 42 43 43 44 44 44 45 45 46 46 45 45 46 46 46
38 38 38 38 39 39 39 39 39 40 40 40 40 40 40 41 40 40 40 40 41 41 42 42 42 42 42 43 43 43 44 44 44 45 46 46 47 47 48 48 48 48 47
39 39 39 39 39 39 39 40 40 40 40 41 41 42 41 41 41 42 41 41 42 42 43 43 44 43 43 43 43 43 44 44 44 45 46 46 46 47 48 48 48 48 48
40 40 40 40 40 40 40 41 41 41 42 42 42 42 43 43 43 43 43 43 43 43 44 44 45 45 44 44 44 44 44 45 45 45 46 46 46 47 48 48 48 47 47
41 41 42 41 41 41 41 42 42 43 43 44 43 44 44 44 44 45 45 44 44 44 44 45 45 45 45 46 46 46 46 46 46 46 46 46 47 47 48 48 48 47 47
43 43 43 42 42 42 43 43 43 44 44 44 44 44 45 45 44 45 45 45 45 45 45 45 46 46 46 46 46 46 45 46 46 46 46 45 46 46 46 46 47 47 47
44 43 43 43 43 43 44 44 44 45 45 44 44 45 45 45 44 45 45 45 45 45 45 45 45 45 46 46 45 45 45 45 45 45 45 45 46 46 47 48 48 48 49
43 43 44 44 44 44 44 44 44 44 44 44 44 44 44 44 44 44 45 45 45 45 45 44 44 44 44 45 45 45 46 46 45 45 45 45 46 47 48 49 49 50 50
42 42 42 43 43 44 44 45 45 45 45 45 44 44 44 44 45 45 46 46 45 45 45 43 42 43 43 44 45 45 45 46 46 46 46 46 47 48 49 49 49 49 50
44 43 43 42 43 43 44 45 45 45 45 44 44 44 44 44 44 44 44 44 44 44 43 42 42 42 43 44 44 45 45 46 47 47 46 47 48 48 49 49 49 49 50
45 44 44 44 43 43 44 44 45 45 44 44 43 43 43 43 43 43 43 43 43 43 43 42 42 43 43 44 44 45 46 47 46 46 46 47 47 48 48 49 50 50 51
46 46 46 45 45 45 45 45 45 45 45 44 44 43 43 43 43 43 43 43 43 43 44 44 44 44 44 45 45 45 46 45 45 46 46 46 47 48 49 50 50 51 52
46 46 46 46 46 46 46 46 46 46 45 45 44 44 44 44 44 44 44 44 44 44 45 45 45 45 45 45 45 45 45 45 46 46 46 46 47 48 49 50 51 51 51
45 46 47 47 47 46 46 46 46 46 46 46 46 45 45 45 45 45 45 45 45 45 46 46 46 46 45 45 45 45 45 46 46 46 47 47 47 48 49 49 50 50 50
45 46 46 46 46 47 47 47 47 47 47 46 46 46 45 45 45 45 46 46 46 46 46 46 45 44 44 44 45 46 46 47 46 46 47 48 48 49 49 49 49 49 49
45 45 46 46 46 46 46 46 46 46 46 46 45 46 45 45 45 45 45 45 45 45 45 44 44 44 44 44 45 45 46 46 46 46 46 47 48 48 47 47 47 47 48
43 44 44 44 44 45 45 45 45 45 45 45 45 45 45 45 45 44 44 44 44 44 43 43 44 43 43 44 44 44 45 45 45 45 44 45 45 45 44 44 45 45 46

GEFSMA_500_meanwind_240.txt.gz
Wind_Speed
29 29 28 28 29 29 29 29 29 30 29 28 28 28 28 28 27 27 27 28 27 26 26 25 25 26 26 26 25 25 26 26 26 26 26 26 26 26 26 27 27 27 27
30 30 29 29 29 29 29 29 30 30 30 30 29 29 28 28 29 29 28 28 29 28 27 26 26 26 27 27 27 27 27 28 28 28 28 28 27 28 28 28 28 29 29
32 31 31 30 30 29 30 30 31 31 31 31 31 30 30 30 30 29 29 29 29 29 28 28 28 28 29 28 28 28 28 28 29 29 29 29 29 29 29 30 30 31 31
34 33 33 32 31 31 30 31 31 31 31 31 31 32 31 31 31 31 31 31 30 29 29 29 29 30 30 30 30 30 30 31 31 31 31 31 31 31 31 32 32 32 32
35 35 34 33 33 32 32 31 32 32 32 31 31 31 32 32 32 32 32 32 31 31 31 31 31 31 32 32 32 32 32 32 32 33 33 33 33 33 33 33 33 33 34
37 36 35 35 35 34 34 33 32 33 33 33 32 32 32 32 32 32 32 32 32 33 32 32 32 32 33 33 34 34 34 34 34 34 34 34 34 34 34 34 35 35 36
37 37 37 37 36 36 36 36 35 34 34 34 34 34 34 33 33 33 33 33 33 33 33 33 33 34 34 34 34 34 35 35 35 35 35 35 35 36 36 36 37 37 37
38 38 38 38 38 38 38 37 37 36 36 35 35 35 35 35 35 34 34 34 34 34 34 34 35 34 34 34 34 34 35 35 35 35 35 36 36 37 37 37 38 38 38
39 39 39 39 39 38 38 38 37 37 37 37 37 36 36 36 36 36 36 36 36 36 36 36 36 35 35 35 35 35 36 36 36 36 36 36 37 38 39 39 38 39 39
40 41 40 40 40 40 39 39 38 38 38 38 38 37 37 37 38 37 37 36 36 37 37 37 37 37 37 37 37 37 37 38 38 38 38 37 38 38 39 39 40 41 41
42 42 41 41 41 41 40 40 40 39 39 39 39 39 38 38 38 38 38 38 38 38 38 38 38 38 38 38 39 39 39 39 39 39 38 39 39 40 40 40 41 42 43
43 43 43 43 42 41 40 41 41 41 40 41 40 40 40 39 39 39 38 38 39 39 38 38 38 39 39 39 39 39 39 39 40 41 41 40 41 42 43 43 43 43 44
44 44 44 44 44 42 41 42 42 42 41 41 41 41 41 41 40 40 40 39 39 39 39 39 40 40 40 40 40 41 40 41 41 41 41 42 42 43 43 43 43 43 42
46 45 45 45 44 42 42 42 42 42 42 42 42 42 42 42 42 41 42 42 41 41 40 41 41 41 41 42 42 42 42 42 42 43 43 43 43 44 44 45 44 43 43
47 46 47 45 44 44 43 43 43 42 42 42 42 42 43 43 43 43 44 44 43 42 42 42 43 43 42 43 42 42 43 43 43 44 44 44 43 44 45 45 45 44 44
48 47 47 46 45 44 44 45 44 43 43 43 44 44 44 45 45 44 44 44 45 44 44 43 43 43 44 43 42 43 43 43 43 43 43 43 43 44 45 45 45 46 46
48 47 45 45 45 45 45 46 45 45 45 45 46 46 44 45 45 45 45 45 45 45 44 44 43 43 43 43 43 44 43 43 43 43 43 43 44 45 46 46 47 48 48
47 46 47 45 45 45 46 46 45 46 46 45 46 46 46 47 46 46 46 46 45 45 45 43 42 42 43 43 44 44 43 43 44 44 44 44 45 45 46 47 47 48 49
46 46 46 46 46 46 46 46 46 46 46 46 46 46 47 46 46 46 46 46 45 45 45 44 43 43 44 44 44 43 43 43 44 44 44 45 45 46 47 48 48 48 48
46 46 45 46 46 46 46 46 46 46 46 46 46 45 45 46 46 45 45 45 45 45 45 45 45 44 44 44 44 44 44 44 45 45 45 46 46 47 47 49 49 49 48
46 45 45 44 45 45 45 46 46 46 45 45 45 45 44 45 46 45 45 44 45 45 46 46 46 45 45 44 45 45 44 45 45 46 45 46 46 46 47 48 48 48 48
44 44 44 43 43 44 45 45 46 46 45 45 45 45 44 44 44 44 44 44 44 44 44 45 45 45 45 45 45 44 44 45 46 46 45 45 46 46 46 47 47 47 48
44 44 43 43 43 44 45 45 45 45 45 45 45 45 45 44 44 44 44 44 44 44 45 45 45 44 45 45 45 45 45 46 46 46 46 45 45 45 45 46 47 48 48
44 44 44 43 43 43 44 44 45 45 44 44 44 44 44 44 45 45 44 44 45 45 45 45 45 44 44 45 45 45 46 46 46 46 46 45 44 43 44 44 46 47 47
44 43 44 44 44 44 44 44 44 44 43 43 43 43 44 44 45 45 45 45 45 45 45 45 45 45 45 45 46 46 46 46 46 45 45 45 44 44 43 44 44 45 46
42 43 43 43 43 43 43 43 43 43 43 43 42 43 44 45 45 45 45 45 44 44 44 45 44 44 44 45 45 46 45 44 44 44 43 44 44 45 44 44 44 45 46

GEFSMA_500_meanwind_246.txt.gz
Wind_Speed
30 31 31 31 31 31 31 31 30 30 30 29 29 29 29 29 28 28 28 28 28 27 27 27 26 27 27 26 26 26 26 25 25 25 24 24 24 25 25 25 25 25 25
32 32 32 32 32 32 32 32 31 31 30 30 30 29 29 29 28 28 28 28 28 28 28 28 27 27 28 28 27 27 27 26 26 26 26 26 26 25 25 26 27 27 27
34 34 33 33 33 33 33 33 33 33 32 31 30 30 30 30 30 30 29 29 29 29 29 29 29 29 29 29 28 28 28 28 28 27 27 27 27 27 27 28 28 28 28
36 36 35 35 34 34 34 34 34 34 33 32 32 32 32 31 31 31 31 30 31 30 30 30 30 30 30 30 30 29 29 29 29 28 28 28 28 28 28 29 28 28 28
38 37 37 36 36 35 35 35 34 34 34 34 33 33 33 33 32 32 32 32 32 32 31 31 31 31 31 31 31 31 31 31 30 29 29 29 29 29 29 29 29 28 28
39 39 38 38 37 37 36 36 36 35 35 35 35 34 34 34 34 33 33 33 33 33 33 33 33 32 32 32 32 33 33 33 32 32 31 30 30 30 30 30 29 29 30
40 40 40 40 39 38 38 38 37 37 36 36 36 36 36 35 35 34 34 34 34 34 34 34 34 34 34 33 34 34 34 33 33 33 33 32 32 32 31 31 31 31 32
42 42 42 41 41 40 40 39 39 38 38 38 37 38 38 37 37 37 36 35 35 35 35 35 36 35 35 34 35 35 34 34 34 34 35 34 34 33 33 32 33 33 34
43 43 43 43 42 41 41 40 40 40 40 40 40 39 39 38 38 38 37 36 35 35 36 36 36 36 36 36 36 35 34 34 34 34 35 35 35 34 34 34 34 35 35
45 45 45 44 43 43 43 42 41 41 41 41 41 41 40 40 38 38 37 37 36 37 37 37 37 37 37 37 37 37 36 36 36 35 36 36 35 35 35 36 35 36 36
47 47 47 46 45 45 44 44 43 42 42 42 42 42 41 40 39 39 38 37 38 38 38 38 38 38 38 38 38 38 38 38 38 38 38 37 37 36 36 37 37 37 38
48 49 48 47 47 46 45 45 45 44 43 43 43 42 42 41 40 40 40 39 39 39 39 39 39 39 39 39 39 39 39 39 39 39 39 39 39 38 38 39 39 39 39
49 49 49 49 49 48 47 47 46 45 45 44 44 43 43 42 41 41 41 41 41 41 40 40 40 40 40 41 41 41 41 41 41 41 41 40 40 41 41 41 41 42 41
48 49 49 49 49 49 49 48 48 48 47 46 45 44 44 43 43 43 42 42 42 43 42 41 41 41 42 42 42 42 42 42 43 42 42 42 42 42 43 43 43 43 43
49 49 50 50 50 50 49 49 49 49 48 48 47 46 45 44 44 44 44 44 43 43 43 43 43 43 43 43 43 43 43 43 43 43 44 44 44 44 44 44 44 45 45
48 48 48 49 50 51 51 51 51 51 50 49 48 47 46 46 45 45 45 45 45 44 43 43 44 44 44 45 45 45 45 45 45 45 45 46 46 45 45 45 46 46 47
49 49 49 49 49 49 50 51 50 51 50 49 48 48 48 47 47 46 46 46 46 46 46 45 45 45 45 46 46 47 46 46 46 46 46 46 46 46 46 46 47 47 47
49 48 49 49 49 48 49 50 50 50 50 50 50 49 48 48 47 47 47 47 47 47 47 47 46 46 45 46 46 47 47 47 46 46 46 46 46 46 46 46 47 47 48
48 48 47 48 48 49 49 49 49 49 49 49 49 49 49 49 48 48 48 48 47 47 47 47 47 47 47 47 47 47 47 47 47 46 46 46 47 47 48 48 48 49 49
48 49 49 48 48 48 49 49 49 48 48 48 48 48 49 49 48 48 48 48 48 48 48 48 48 48 48 48 47 47 46 46 47 46 47 47 47 48 48 48 49 49 50
48 48 49 48 47 47 48 48 49 48 47 47 47 47 47 48 48 49 48 48 47 47 48 48 48 48 47 47 48 48 48 47 48 48 48 48 48 48 49 49 49 49 50
47 47 47 47 47 47 48 48 48 48 48 47 47 46 46 47 47 48 48 48 48 47 47 47 47 47 48 48 48 48 49 49 49 49 49 49 49 48 49 49 49 50 50
45 44 45 46 47 47 47 48 48 48 47 47 46 46 46 46 47 48 48 48 47 47 46 47 47 47 47 48 48 48 48 49 49 50 50 49 49 49 49 49 50 50 50
44 44 46 46 46 46 46 46 46 46 46 45 45 45 45 46 47 47 46 46 46 46 47 47 47 47 47 48 48 48 48 48 48 49 49 49 49 49 48 48 48 49 50
43 44 45 46 46 46 46 45 45 45 44 44 45 46 46 46 46 47 47 46 47 46 46 46 46 47 47 47 47 47 47 47 47 48 48 48 48 48 48 48 48 49 49
43 43 44 44 44 44 45 45 45 45 45 45 45 46 46 46 46 46 46 46 46 46 46 45 45 46 46 47 46 47 47 47 48 47 47 48 48 49 48 48 48 48 48

GEFSMA_500_meanwind_252.txt.gz
Wind_Speed
33 33 32 32 32 32 31 31 31 31 31 32 31 31 30 29 29 28 28 28 27 27 27 28 28 27 26 25 25 25 25 24 24 24 24 24 24 23 23 24 24 23 23
34 34 35 34 34 34 33 33 32 32 31 31 31 31 31 31 30 29 29 29 29 28 28 28 28 28 28 27 27 27 27 27 26 26 26 26 25 25 24 24 25 25 24
36 36 36 36 36 36 35 35 34 34 33 32 32 32 31 31 30 30 30 30 29 29 29 28 28 29 28 29 29 29 28 28 28 28 28 27 27 26 26 26 25 25 25
38 38 38 37 37 37 37 37 36 36 35 35 34 34 33 32 32 32 31 31 30 30 30 30 30 30 29 29 29 30 29 29 29 29 29 28 28 28 27 27 26 26 26
40 40 40 40 39 38 38 38 38 38 37 37 36 36 35 34 33 33 32 32 32 31 31 31 31 31 31 31 30 30 31 31 30 30 29 29 29 29 29 29 28 28 28
42 41 41 41 41 40 40 39 39 39 39 38 37 36 37 37 36 35 34 34 33 33 32 32 32 32 33 32 31 31 32 32 31 30 30 30 30 30 30 30 31 31 30
44 43 43 43 42 41 41 41 40 40 40 40 39 38 37 37 37 37 36 35 35 35 35 34 33 34 34 34 33 33 32 32 32 32 32 32 32 31 31 31 31 31 32
45 45 44 44 44 43 43 42 42 41 41 41 41 40 39 38 38 38 37 37 37 36 36 36 36 35 35 35 34 34 34 33 33 33 33 33 33 33 33 33 33 33 32
47 47 47 46 45 44 44 44 44 43 43 42 42 42 42 41 40 39 39 38 37 36 36 37 37 37 36 36 36 36 36 35 35 34 35 34 34 34 34 34 34 34 35
49 49 49 48 47 47 46 46 45 45 44 44 44 43 43 43 41 40 40 40 40 39 38 38 38 38 37 37 37 37 37 37 37 37 36 36 36 36 35 35 35 35 35
51 51 51 50 50 49 48 48 47 47 46 46 46 45 44 44 44 43 42 41 42 41 41 40 39 38 38 38 39 39 38 38 38 38 37 37 37 37 37 37 37 37 37
52 52 52 51 51 51 50 50 49 49 48 48 47 47 46 46 46 45 44 43 43 42 42 41 41 40 40 40 41 40 40 40 40 39 38 38 38 38 38 38 38 38 39
53 52 52 52 52 51 51 51 51 50 50 49 49 49 48 48 48 47 46 45 44 43 42 42 42 41 41 41 41 41 41 41 41 41 40 39 39 39 39 39 40 40 41
54 54 53 52 52 52 52 52 52 51 51 51 50 50 49 49 49 48 47 46 45 44 43 43 43 43 43 43 43 43 42 43 42 42 42 41 41 42 42 42 42 42 42
53 53 53 53 53 53 53 52 52 52 52 51 51 50 50 50 49 49 48 48 47 45 44 43 44 44 44 44 44 44 44 44 43 44 43 43 44 44 44 44 44 44 44
52 53 54 54 54 53 52 52 52 52 52 51 51 51 50 50 49 49 49 48 48 47 45 44 44 45 45 46 45 45 45 45 45 45 45 45 45 45 45 46 45 45 45
51 51 52 53 53 53 53 52 52 51 51 51 51 51 51 51 51 50 50 49 49 48 47 46 46 45 45 46 46 46 46 46 46 47 46 46 46 46 46 46 46 47 46
52 51 50 50 51 52 52 52 52 52 52 52 52 52 52 51 51 51 51 50 50 49 49 48 47 46 45 45 46 47 47 47 47 47 47 47 47 47 47 47 47 47 47
53 51 50 50 49 50 51 51 51 52 53 53 52 52 53 52 52 52 52 51 51 51 50 50 49 48 47 47 48 47 47 47 48 48 48 48 48 48 48 48 48 48 49
51 51 49 49 48 48 49 50 51 51 52 53 53 53 54 53 53 53 53 52 52 51 51 51 50 50 49 49 49 48 48 48 48 48 49 49 48 48 48 48 49 49 49
51 51 50 49 48 48 48 49 50 51 52 53 53 53 53 53 54 54 53 52 51 51 50 51 51 51 51 50 50 49 49 49 49 49 49 48 48 48 49 49 49 48 49
48 48 49 49 48 47 47 48 50 50 51 51 51 52 52 53 53 52 52 52 51 50 50 51 51 51 51 51 50 50 49 49 49 48 49 49 49 49 49 49 48 48 48
46 46 47 48 48 48 47 48 48 48 48 48 48 49 50 51 51 50 50 51 51 50 51 50 50 50 50 50 50 50 49 48 47 47 48 48 48 48 49 49 49 49 49
46 46 46 47 47 48 48 48 48 47 47 47 48 48 49 49 50 50 49 50 50 50 50 50 49 49 50 50 50 49 48 47 47 48 48 47 47 48 49 50 50 50 51
45 45 45 46 46 46 47 48 48 47 47 47 47 48 48 48 48 49 49 49 49 49 49 49 49 49 49 49 49 48 48 47 47 47 48 48 48 48 49 49 50 51 52
42 43 44 44 44 44 45 46 47 47 47 47 47 47 47 48 49 49 49 48 48 48 48 48 48 48 48 47 47 47 47 47 47 46 47 48 48 48 48 48 49 50 51

GEFSMA_500_meanwind_258.txt.gz
Wind_Speed
33 33 33 33 33 33 33 33 33 33 33 33 33 32 32 31 31 30 29 29 29 28 28 28 28 28 27 26 26 25 25 24 24 24 23 23 22 22 22 22 22 22 22
35 35 35 35 35 35 35 35 35 35 35 35 35 35 35 34 33 32 31 31 30 30 29 29 29 29 28 28 28 27 27 27 26 25 25 25 24 24 23 23 23 23 24
37 37 37 37 37 37 37 37 37 37 37 37 36 37 37 37 36 34 34 33 32 31 30 29 30 30 30 29 29 29 29 28 28 27 27 27 26 25 25 25 25 25 25
40 40 39 39 40 39 39 39 38 39 39 39 38 38 38 39 38 37 37 36 35 34 32 32 31 31 31 31 30 30 30 30 29 29 28 28 28 28 27 27 27 27 27
43 42 42 41 41 40 40 41 41 40 40 40 40 40 40 39 39 39 39 38 37 36 35 34 34 33 32 32 31 31 31 30 30 30 30 29 29 30 30 29 29 29 29
44 44 44 43 43 42 42 42 42 42 42 42 42 42 42 41 40 40 40 39 39 38 37 36 36 35 34 33 32 32 32 32 32 31 31 31 31 31 31 31 31 30 30
46 45 45 44 44 44 44 43 44 43 43 43 44 43 43 43 42 42 42 41 41 40 39 38 38 37 36 35 35 34 33 33 33 32 33 32 32 32 31 31 32 32 32
49 48 48 47 46 46 45 46 45 45 45 44 44 45 45 45 44 44 44 43 42 42 42 40 39 39 38 37 37 36 36 35 35 35 34 33 33 33 32 32 32 33 33
51 51 51 51 50 49 48 47 46 47 47 46 46 46 46 46 46 46 45 45 45 44 43 42 42 41 40 39 39 38 38 37 37 36 36 35 34 34 34 34 34 34 33
53 53 53 52 52 51 50 50 49 48 48 47 46 47 47 47 47 47 47 47 47 46 45 44 43 42 42 42 41 40 39 38 37 37 37 37 36 35 35 35 34 34 34
55 54 54 54 53 53 52 51 51 50 49 48 48 47 47 47 47 48 47 47 47 47 47 46 45 44 44 43 42 41 41 39 38 38 38 38 37 36 36 36 36 35 35
56 55 56 55 54 54 54 53 53 53 52 51 50 49 49 49 48 49 49 48 48 48 48 47 46 45 44 43 43 42 42 41 41 40 40 39 39 39 39 39 38 37 37
56 56 56 56 56 56 56 55 55 55 54 53 52 51 51 50 50 50 50 50 50 49 49 49 48 47 46 46 44 43 43 42 42 42 42 42 42 41 41 41 40 40 39
56 56 57 57 57 57 57 57 57 56 56 55 54 53 53 52 52 52 51 52 52 51 50 50 49 48 48 47 46 45 44 44 44 44 44 44 44 43 43 42 42 42 42
56 57 57 58 57 57 58 58 57 57 57 56 55 55 54 54 54 54 53 53 53 53 52 51 51 50 49 48 47 47 46 45 45 45 45 45 45 45 45 45 45 45 45
55 55 54 55 57 57 58 57 57 58 57 56 56 56 56 55 55 55 54 54 53 53 53 52 52 52 51 50 49 49 48 48 47 47 46 45 45 46 46 46 46 46 46
57 56 55 54 55 56 57 57 57 57 57 56 56 57 56 56 56 56 55 55 54 54 53 53 53 53 53 52 51 51 50 49 48 48 47 47 47 46 47 47 47 46 46
55 55 56 56 55 55 56 57 57 57 56 56 56 56 56 56 56 56 56 56 55 55 54 53 54 53 53 53 53 52 52 51 50 49 48 48 48 48 47 47 47 46 46
55 55 55 55 54 54 54 55 56 56 56 56 55 55 55 55 55 55 56 56 56 56 56 55 55 54 54 54 54 53 53 52 51 50 49 49 49 48 48 48 48 48 47
53 54 53 53 54 54 53 53 54 54 54 54 54 54 54 53 53 53 54 55 56 56 56 56 56 55 54 54 54 53 53 52 52 51 50 50 50 49 49 49 49 48 48
52 51 51 51 52 53 52 51 52 53 53 52 52 53 53 53 53 54 54 54 56 56 56 56 56 56 55 54 54 53 53 53 52 52 52 52 52 51 51 50 49 48 48
50 49 49 49 50 51 51 51 50 51 51 52 52 51 52 53 53 53 54 54 55 55 55 55 55 55 54 54 53 53 53 53 53 53 53 52 52 52 50 50 49 49 49
47 47 47 47 47 49 50 50 50 50 49 50 51 51 51 51 52 52 53 54 54 54 54 54 54 55 55 54 54 53 53 53 53 53 53 52 52 51 51 50 50 50 50
46 45 45 45 46 46 48 49 49 49 49 50 50 51 51 50 50 51 52 53 53 53 53 53 54 54 54 53 53 53 53 54 54 54 53 52 52 51 51 50 51 51 51
44 44 44 44 45 46 47 47 48 49 49 49 49 50 50 49 49 50 50 50 51 52 53 53 53 53 53 53 53 53 52 53 53 53 52 52 51 51 50 50 50 51 51
43 43 43 43 44 44 45 45 46 47 47 47 47 47 48 49 49 49 49 49 48 49 50 51 52 52 52 52 52 52 52 52 51 51 50 50 50 51 50 50 50 50 50

GEFSMA_500_meanwind_264.txt.gz
Wind_Speed
35 34 34 35 34 33 32 32 32 32 32 32 32 31 31 31 31 31 30 30 29 29 29 29 28 27 27 26 26 25 25 25 24 23 23 23 22 22 22 22 21 21 21
36 37 37 37 36 36 35 35 34 34 33 33 33 33 33 33 33 33 32 32 31 31 31 31 31 30 29 28 28 28 27 27 26 26 25 24 24 24 23 23 23 23 23
38 39 39 39 38 38 38 38 37 37 36 36 35 35 35 35 34 34 34 34 34 33 33 33 33 33 32 31 30 29 29 28 28 28 27 26 26 26 25 24 24 24 24
42 41 41 41 41 40 40 40 40 39 39 38 38 37 37 37 37 36 36 35 36 36 36 35 35 34 34 33 32 31 30 30 30 29 29 28 28 27 27 27 26 25 26
44 44 43 42 42 43 42 42 42 42 42 41 41 40 38 38 38 38 38 37 37 37 37 37 37 36 36 35 35 34 33 32 31 31 31 30 29 28 28 28 28 27 27
47 46 45 44 44 44 45 44 44 44 44 43 42 42 41 40 40 40 39 39 39 39 38 39 39 38 38 37 37 36 35 35 33 33 32 31 30 30 30 30 29 29 28
50 49 48 48 47 47 47 46 46 46 45 45 44 43 42 43 42 42 42 41 42 42 41 41 41 40 39 39 38 38 37 37 36 35 34 33 32 32 31 31 31 30 30
53 52 51 51 50 50 50 50 49 48 47 47 46 45 44 44 44 44 43 43 43 43 42 42 42 42 41 41 40 39 39 38 38 37 36 36 34 34 33 31 32 32 32
55 54 53 53 53 52 52 52 52 51 50 49 49 48 47 46 45 45 46 46 45 44 44 44 44 44 43 43 42 41 40 40 39 38 38 38 36 36 35 33 33 33 32
55 56 56 55 55 55 54 53 53 52 52 51 51 50 50 49 48 46 46 47 47 47 46 46 45 45 45 44 44 43 43 42 42 40 39 39 38 37 37 36 35 34 33
57 57 58 57 57 57 56 55 54 54 53 53 53 52 52 51 51 50 48 47 47 47 47 47 47 46 47 46 46 45 44 44 44 43 42 41 39 38 38 38 37 36 34
57 57 57 58 58 57 57 56 55 55 55 55 54 54 53 52 51 51 51 50 49 48 48 48 48 47 47 48 48 47 46 45 45 44 43 42 41 41 40 40 39 37 37
57 58 58 58 58 57 57 56 55 56 56 56 56 55 54 54 52 52 52 52 52 50 49 49 49 49 49 49 49 48 48 47 47 45 44 43 43 42 42 41 40 40 39
57 58 58 57 57 57 57 57 57 56 56 56 56 56 55 54 54 53 53 53 53 52 51 49 50 51 51 50 49 49 49 49 48 48 47 46 45 44 44 43 42 41 41
58 58 57 57 57 57 58 58 58 58 57 56 56 57 57 56 55 55 54 54 54 53 52 51 50 50 51 51 51 51 50 50 49 49 48 48 47 46 45 44 43 43 42
57 57 57 57 56 57 58 58 58 58 58 57 57 56 57 57 57 56 55 55 55 54 54 52 51 51 51 51 51 51 51 51 50 50 49 48 48 47 47 46 45 44 44
55 55 55 55 56 57 57 57 58 58 58 58 57 57 57 58 58 57 57 57 55 54 54 53 52 52 52 52 52 52 52 51 51 51 51 51 50 49 48 47 47 46 45
54 55 54 55 55 56 56 56 56 57 58 58 58 58 58 57 58 58 58 58 56 54 54 53 53 53 53 53 52 53 52 51 51 52 52 52 51 51 50 50 49 48 48
54 54 55 56 57 57 56 57 57 57 57 58 58 59 59 58 57 57 58 58 58 56 55 54 53 53 53 53 53 53 53 52 52 52 53 53 52 52 52 51 51 50 49
52 53 54 56 57 57 57 57 57 57 56 56 57 57 57 57 56 56 56 56 57 56 55 55 54 53 53 53 53 53 53 52 52 52 53 54 54 53 53 52 51 51 50
48 50 52 53 54 55 56 56 56 56 56 56 55 56 56 55 56 55 55 55 56 56 56 55 54 54 53 53 53 53 53 53 52 52 52 54 54 54 54 53 52 51 51
47 48 50 51 52 53 54 54 55 55 54 53 53 53 54 55 55 55 55 55 54 54 54 54 53 53 52 52 52 52 53 54 53 53 53 53 54 54 54 53 52 51 51
47 48 48 49 49 50 51 53 54 53 52 51 51 50 51 52 53 53 53 54 53 52 52 52 51 51 51 52 52 52 53 53 53 52 54 54 54 54 54 54 53 53 52
46 47 46 47 47 47 48 49 51 52 51 49 49 49 50 50 51 52 52 52 52 51 51 50 50 50 52 52 52 52 53 53 53 52 53 54 54 54 55 54 54 54 53
43 44 44 44 44 44 45 46 47 48 48 48 47 47 47 48 49 50 50 50 50 50 51 51 51 51 51 51 51 52 53 54 53 52 52 52 52 53 53 53 53 54 54
41 41 41 41 41 41 41 42 43 44 45 46 46 46 46 47 47 47 48 49 49 49 50 50 50 50 51 51 50 51 52 52 53 52 52 52 52 52 52 52 51 52 52